W4HSV Weather Reports


Display with metric or nautical units.
time (UTC)temp
F
wind
direction
speed
MPH
gust
MPH
rain 1hr
in
rain 24hr
in
rain mn
in
humidity
%
barometer
mb
20260510224448 85 207 0.0 3.0 0.00 0.00 0.00 39 1014.7
20260510224317 85 207 0.0 3.0 0.00 0.00 0.00 39 1014.7
20260510224226 85 207 0.0 3.0 0.00 0.00 0.00 39 1014.7
20260510224112 85 207 0.0 3.0 0.00 0.00 0.00 39 1014.7
20260510224021 85 346 0.0 5.0 0.00 0.00 0.00 39 1014.7
20260510223949 85 346 1.0 5.0 0.00 0.00 0.00 39 1014.7
20260510223835 85 346 1.0 5.0 0.00 0.00 0.00 39 1014.8
20260510223725 85 346 1.0 5.0 0.00 0.00 0.00 39 1014.8
20260510223603 85 346 1.0 5.0 0.00 0.00 0.00 40 1014.8
20260510223317 85 13 2.0 6.0 0.00 0.00 0.00 41 1014.8
20260510223226 85 13 2.0 6.0 0.00 0.00 0.00 41 1014.8
20260510223116 85 52 3.0 6.0 0.00 0.00 0.00 41 1014.7
20260510223024 85 31 3.0 6.0 0.00 0.00 0.00 41 1014.7
20260510222951 85 15 3.0 6.0 0.00 0.00 0.00 41 1014.8
20260510222817 85 349 3.0 6.0 0.00 0.00 0.00 41 1014.7
20260510222726 85 360 4.0 6.0 0.00 0.00 0.00 40 1014.7
20260510222617 85 30 4.0 6.0 0.00 0.00 0.00 42 1014.7
20260510222525 85 5 4.0 7.0 0.00 0.00 0.00 42 1014.7
20260510222452 85 19 4.0 5.0 0.00 0.00 0.00 41 1014.8
20260510222317 85 5 3.0 5.0 0.00 0.00 0.00 41 1014.8
20260510222244 85 355 3.0 5.0 0.00 0.00 0.00 41 1014.8
20260510222132 85 360 3.0 5.0 0.00 0.00 0.00 41 1014.8
20260510222046 85 355 2.0 5.0 0.00 0.00 0.00 41 1014.8
20260510221820 85 328 1.0 5.0 0.00 0.00 0.00 40 1014.8
20260510221728 85 309 1.0 5.0 0.00 0.00 0.00 40 1014.8
20260510221616 85 348 0.0 5.0 0.00 0.00 0.00 40 1014.8
20260510221523 85 355 0.0 5.0 0.00 0.00 0.00 41 1014.8
20260510221433 85 355 1.0 5.0 0.00 0.00 0.00 40 1014.9
20260510221319 85 355 2.0 5.0 0.00 0.00 0.00 41 1015.0
20260510221226 85 355 3.0 5.0 0.00 0.00 0.00 41 1015.0
20260510221113 85 341 4.0 5.0 0.00 0.00 0.00 41 1014.9
20260510221019 85 329 3.0 5.0 0.00 0.00 0.00 41 1014.9
20260510220927 85 321 3.0 5.0 0.00 0.00 0.00 42 1014.9
20260510220839 85 321 2.0 5.0 0.00 0.00 0.00 42 1014.9
20260510220724 85 351 3.0 5.0 0.00 0.00 0.00 42 1014.9
20260510220632 85 360 2.0 5.0 0.00 0.00 0.00 41 1014.9
20260510220602 85 17 2.0 8.0 0.00 0.00 0.00 43 1014.8
20260510220335 85 15 1.0 8.0 0.00 0.00 0.00 40 1014.8
20260510220227 85 337 2.0 8.0 0.00 0.00 0.00 40 1014.8
20260510220114 85 28 3.0 8.0 0.00 0.00 0.00 41 1015.0
20260510220022 84 36 3.0 8.0 0.00 0.00 0.00 41 1015.0
20260510215929 84 18 3.0 8.0 0.00 0.00 0.00 41 1014.9
20260510215816 84 320 3.0 8.0 0.00 0.00 0.00 40 1015.0
20260510215723 84 355 4.0 8.0 0.00 0.00 0.00 42 1015.0
20260510215615 84 15 3.0 8.0 0.00 0.00 0.00 42 1014.9
20260510215523 84 13 2.0 6.0 0.00 0.00 0.00 41 1014.9
20260510215431 84 355 3.0 6.0 0.00 0.00 0.00 41 1014.9
20260510215318 84 290 3.0 6.0 0.00 0.00 0.00 41 1014.9
20260510215227 84 308 3.0 6.0 0.00 0.00 0.00 41 1014.9
20260510215151 84 313 2.0 6.0 0.00 0.00 0.00 41 1014.9
20260510215106 84 323 2.0 6.0 0.00 0.00 0.00 41 1014.9
20260510214820 84 360 3.0 6.0 0.00 0.00 0.00 41 1015.0
20260510214728 84 67 3.0 6.0 0.00 0.00 0.00 42 1015.0
20260510214616 84 355 1.0 5.0 0.00 0.00 0.00 41 1015.0
20260510214526 84 319 1.0 5.0 0.00 0.00 0.00 42 1015.0
20260510214414 84 323 2.0 5.0 0.00 0.00 0.00 45 1015.0
20260510214322 84 303 3.0 5.0 0.00 0.00 0.00 42 1015.0
20260510214229 84 14 3.0 6.0 0.00 0.00 0.00 42 1014.9
20260510214137 84 27 2.0 6.0 0.00 0.00 0.00 41 1015.0
20260510214023 84 13 1.0 6.0 0.00 0.00 0.00 41 1015.0
20260510213915 84 35 2.0 6.0 0.00 0.00 0.00 41 1015.0
20260510213822 84 22 2.0 6.0 0.00 0.00 0.00 41 1015.0
20260510213729 84 19 2.0 6.0 0.00 0.00 0.00 41 1015.1
20260510213617 84 360 3.0 6.0 0.00 0.00 0.00 41 1015.0
20260510213551 85 360 3.0 6.0 0.00 0.00 0.00 41 1015.0
20260510213326 85 47 3.0 6.0 0.00 0.00 0.00 40 1015.1
20260510213214 85 57 3.0 6.0 0.00 0.00 0.00 40 1015.2
20260510213121 85 44 3.0 6.0 0.00 0.00 0.00 42 1015.1
20260510213029 85 20 2.0 6.0 0.00 0.00 0.00 41 1015.1
20260510212917 85 65 2.0 6.0 0.00 0.00 0.00 41 1015.1
20260510212829 85 57 3.0 6.0 0.00 0.00 0.00 39 1015.1
20260510212717 85 106 4.0 6.0 0.00 0.00 0.00 41 1015.2
20260510212624 85 54 4.0 6.0 0.00 0.00 0.00 41 1015.2
20260510212532 85 56 4.0 6.0 0.00 0.00 0.00 41 1015.2
20260510212421 85 46 4.0 6.0 0.00 0.00 0.00 43 1015.1
20260510212312 85 34 3.0 6.0 0.00 0.00 0.00 41 1015.2
20260510212240 85 17 3.0 6.0 0.00 0.00 0.00 41 1015.2
20260510212208 85 80 2.0 6.0 0.00 0.00 0.00 41 1015.1
20260510212119 85 54 2.0 6.0 0.00 0.00 0.00 40 1015.2
20260510211831 85 14 3.0 6.0 0.00 0.00 0.00 41 1015.1
20260510211723 85 317 4.0 6.0 0.00 0.00 0.00 41 1015.0
20260510211629 85 336 4.0 6.0 0.00 0.00 0.00 41 1015.1
20260510211516 85 269 4.0 6.0 0.00 0.00 0.00 42 1015.1
20260510211425 85 300 3.0 6.0 0.00 0.00 0.00 42 1015.1
20260510211352 85 316 3.0 6.0 0.00 0.00 0.00 42 1015.2
20260510211217 85 355 4.0 6.0 0.00 0.00 0.00 42 1015.0
20260510211130 85 321 4.0 6.0 0.00 0.00 0.00 42 1015.0
20260510211017 85 330 4.0 8.0 0.00 0.00 0.00 41 1015.1
20260510210923 85 355 4.0 8.0 0.00 0.00 0.00 41 1015.1
20260510210831 85 346 3.0 8.0 0.00 0.00 0.00 42 1015.1
20260510210718 85 313 2.0 8.0 0.00 0.00 0.00 41 1015.0
20260510210624 85 293 2.0 8.0 0.00 0.00 0.00 41 1015.0
20260510210558 85 274 2.0 8.0 0.00 0.00 0.00 41 1015.1
20260510210313 84 321 4.0 8.0 0.00 0.00 0.00 41 1015.1
20260510210220 84 20 5.0 8.0 0.00 0.00 0.00 42 1015.1
20260510210128 84 325 4.0 8.0 0.00 0.00 0.00 40 1015.1
20260510210020 84 327 3.0 8.0 0.00 0.00 0.00 43 1014.9
20260510205927 84 311 3.0 8.0 0.00 0.00 0.00 42 1014.9
20260510205816 84 349 1.0 8.0 0.00 0.00 0.00 41 1015.0
20260510205743 84 250 1.0 8.0 0.00 0.00 0.00 40 1015.0
20260510205628 84 94 0.0 8.0 0.00 0.00 0.00 39 1015.0
20260510205516 84 296 1.0 8.0 0.00 0.00 0.00 40 1015.0
20260510205428 84 345 2.0 8.0 0.00 0.00 0.00 41 1015.0
20260510205315 84 345 3.0 8.0 0.00 0.00 0.00 42 1015.1
20260510205224 84 9 4.0 8.0 0.00 0.00 0.00 43 1015.1
20260510205131 84 9 4.0 8.0 0.00 0.00 0.00 42 1015.1
20260510205104 84 29 4.0 6.0 0.00 0.00 0.00 42 1015.1
20260510204817 84 342 4.0 6.0 0.00 0.00 0.00 43 1015.1
20260510204744 84 331 4.0 6.0 0.00 0.00 0.00 42 1015.1
20260510204631 84 346 3.0 6.0 0.00 0.00 0.00 42 1015.2
20260510204520 84 294 4.0 6.0 0.00 0.00 0.00 43 1015.1
20260510204427 84 336 4.0 6.0 0.00 0.00 0.00 43 1015.1
20260510204318 84 342 4.0 6.0 0.00 0.00 0.00 45 1015.2
20260510204226 84 15 4.0 6.0 0.00 0.00 0.00 44 1015.2
20260510204114 84 331 4.0 7.0 0.00 0.00 0.00 46 1015.2
20260510204021 84 327 4.0 6.0 0.00 0.00 0.00 45 1015.1
20260510203927 84 313 4.0 5.0 0.00 0.00 0.00 45 1015.1
20260510203819 84 5 3.0 5.0 0.00 0.00 0.00 44 1015.2
20260510203727 84 355 3.0 7.0 0.00 0.00 0.00 44 1015.2
20260510203614 84 317 2.0 7.0 0.00 0.00 0.00 44 1015.2
20260510203546 84 288 2.0 7.0 0.00 0.00 0.00 44 1015.2
20260510203319 84 272 3.0 7.0 0.00 0.00 0.00 43 1015.4
20260510203230 83 276 3.0 7.0 0.00 0.00 0.00 43 1015.4
20260510203117 83 300 3.0 7.0 0.00 0.00 0.00 44 1015.3
20260510203025 83 288 3.0 7.0 0.00 0.00 0.00 44 1015.3
20260510202932 83 321 4.0 7.0 0.00 0.00 0.00 45 1015.4
20260510202839 83 355 3.0 5.0 0.00 0.00 0.00 44 1015.4
20260510202725 83 326 3.0 5.0 0.00 0.00 0.00 45 1015.4
20260510202617 83 321 2.0 5.0 0.00 0.00 0.00 44 1015.4
20260510202544 83 355 3.0 5.0 0.00 0.00 0.00 44 1015.4
20260510202451 83 27 2.0 5.0 0.00 0.00 0.00 42 1015.5
20260510202318 83 30 2.0 7.0 0.00 0.00 0.00 43 1015.5
20260510202226 83 339 2.0 7.0 0.00 0.00 0.00 42 1015.5
20260510202114 83 165 2.0 7.0 0.00 0.00 0.00 43 1015.5
20260510202048 83 128 2.0 7.0 0.00 0.00 0.00 44 1015.5
20260510201841 83 64 2.0 7.0 0.00 0.00 0.00 45 1015.5
20260510201727 83 82 3.0 7.0 0.00 0.00 0.00 43 1015.5
20260510201615 83 65 4.0 7.0 0.00 0.00 0.00 42 1015.5
20260510201523 83 78 3.0 7.0 0.00 0.00 0.00 46 1015.5
20260510201413 84 132 2.0 6.0 0.00 0.00 0.00 44 1015.6
20260510201321 84 161 2.0 6.0 0.00 0.00 0.00 42 1015.6
20260510201229 84 22 3.0 6.0 0.00 0.00 0.00 43 1015.6
20260510201117 84 22 4.0 6.0 0.00 0.00 0.00 43 1015.8
20260510201044 83 73 4.0 7.0 0.00 0.00 0.00 44 1015.8
20260510200914 83 63 3.0 6.0 0.00 0.00 0.00 43 1015.7
20260510200843 83 123 2.0 6.0 0.00 0.00 0.00 45 1015.7
20260510200728 83 42 2.0 6.0 0.00 0.00 0.00 45 1015.7
20260510200636 83 82 2.0 6.0 0.00 0.00 0.00 44 1015.8
20260510200606 83 74 2.0 6.0 0.00 0.00 0.00 46 1015.7
20260510200324 83 340 1.0 5.0 0.00 0.00 0.00 43 1015.9
20260510200231 83 79 2.0 5.0 0.00 0.00 0.00 41 1015.9
20260510200118 83 51 2.0 5.0 0.00 0.00 0.00 41 1015.9
20260510200026 83 94 2.0 5.0 0.00 0.00 0.00 46 1015.9
20260510195912 83 40 3.0 5.0 0.00 0.00 0.00 45 1015.9
20260510195840 83 46 3.0 5.0 0.00 0.00 0.00 46 1016.0
20260510195730 83 63 2.0 5.0 0.00 0.00 0.00 45 1016.0
20260510195618 83 30 1.0 3.0 0.00 0.00 0.00 46 1015.9
20260510195547 83 221 2.0 3.0 0.00 0.00 0.00 46 1015.9
20260510195413 83 27 2.0 3.0 0.00 0.00 0.00 48 1015.9
20260510195321 83 9 2.0 3.0 0.00 0.00 0.00 48 1015.8
20260510195230 83 332 1.0 3.0 0.00 0.00 0.00 48 1015.8
20260510195141 83 162 1.0 2.0 0.00 0.00 0.00 49 1015.9
20260510195111 83 126 1.0 2.0 0.00 0.00 0.00 49 1015.8
20260510194823 83 145 0.0 3.0 0.00 0.00 0.00 50 1015.8
20260510194750 83 145 0.0 3.0 0.00 0.00 0.00 48 1015.9
20260510194636 83 145 1.0 3.0 0.00 0.00 0.00 47 1015.9
20260510194521 83 145 1.0 3.0 0.00 0.00 0.00 47 1015.9
20260510194413 83 121 1.0 3.0 0.00 0.00 0.00 47 1015.8
20260510194341 83 180 1.0 3.0 0.00 0.00 0.00 47 1015.9
20260510194227 83 179 1.0 3.0 0.00 0.00 0.00 49 1015.9
20260510194113 83 119 1.0 3.0 0.00 0.00 0.00 48 1015.9
20260510194021 83 86 2.0 3.0 0.00 0.00 0.00 55 1015.9
20260510193912 83 61 2.0 8.0 0.00 0.00 0.00 55 1015.9
20260510193820 83 117 2.0 8.0 0.00 0.00 0.00 51 1015.9
20260510193728 83 337 2.0 8.0 0.00 0.00 0.00 52 1015.9
20260510193614 83 279 2.0 8.0 0.00 0.00 0.00 50 1015.9
20260510193546 83 268 2.0 8.0 0.00 0.00 0.00 50 1015.9
20260510193324 83 280 2.0 8.0 0.00 0.00 0.00 51 1015.8
20260510193232 83 311 3.0 8.0 0.00 0.00 0.00 53 1016.0
20260510193119 83 360 4.0 8.0 0.00 0.00 0.00 51 1016.0
20260510193027 83 319 5.0 8.0 0.00 0.00 0.00 51 1016.0
20260510192936 83 324 4.0 8.0 0.00 0.00 0.00 51 1016.0
20260510192822 83 340 4.0 8.0 0.00 0.00 0.00 51 1016.0
20260510192712 83 338 3.0 8.0 0.00 0.00 0.00 51 1016.0
20260510192640 83 298 2.0 8.0 0.00 0.00 0.00 53 1016.0
20260510192526 83 294 2.0 8.0 0.00 0.00 0.00 54 1016.0
20260510192413 83 234 4.0 8.0 0.00 0.00 0.00 54 1015.9
20260510192321 83 253 4.0 8.0 0.00 0.00 0.00 54 1016.0
20260510192227 83 292 4.0 8.0 0.00 0.00 0.00 55 1016.0
20260510192118 82 277 4.0 8.0 0.00 0.00 0.00 54 1016.0
20260510192049 82 319 4.0 8.0 0.00 0.00 0.00 55 1016.0
20260510191842 82 309 4.0 8.0 0.00 0.00 0.00 55 1015.9
20260510191728 82 347 3.0 7.0 0.00 0.00 0.00 56 1015.9
20260510191620 82 289 3.0 7.0 0.00 0.00 0.00 58 1015.9
20260510191528 81 273 3.0 7.0 0.00 0.00 0.00 56 1015.9
20260510191415 81 323 3.0 7.0 0.00 0.00 0.00 55 1016.0
20260510191323 81 311 3.0 7.0 0.00 0.00 0.00 55 1016.0
20260510191231 81 317 3.0 7.0 0.00 0.00 0.00 56 1016.0
20260510191138 81 271 3.0 7.0 0.00 0.00 0.00 56 1016.0
20260510191029 81 280 3.0 6.0 0.00 0.00 0.00 56 1016.0
20260510190917 81 181 3.0 6.0 0.00 0.00 0.00 56 1016.0
20260510190825 81 188 2.0 6.0 0.00 0.00 0.00 55 1016.0
20260510190713 81 200 1.0 4.0 0.00 0.00 0.00 53 1016.1
20260510190621 81 199 1.0 4.0 0.00 0.00 0.00 53 1016.0
20260510190554 81 189 2.0 4.0 0.00 0.00 0.00 53 1016.0
20260510190348 81 46 2.0 4.0 0.00 0.00 0.00 56 1016.1
20260510190215 80 34 2.0 6.0 0.00 0.00 0.00 55 1016.0
20260510190122 80 57 2.0 6.0 0.00 0.00 0.00 55 1016.0
20260510190030 80 355 2.0 6.0 0.00 0.00 0.00 55 1016.1
20260510185922 80 5 2.0 6.0 0.00 0.00 0.00 56 1016.2
20260510185830 80 309 2.0 6.0 0.00 0.00 0.00 56 1016.1
20260510185738 80 300 2.0 6.0 0.00 0.00 0.00 59 1016.2
20260510185624 80 248 3.0 6.0 0.00 0.00 0.00 57 1016.2
20260510185552 79 253 3.0 6.0 0.00 0.00 0.00 57 1016.3
20260510185438 79 189 4.0 6.0 0.00 0.00 0.00 57 1016.3
20260510185324 79 198 3.0 7.0 0.00 0.00 0.00 57 1016.3
20260510185235 79 284 3.0 7.0 0.00 0.00 0.00 60 1016.4
20260510185121 79 260 4.0 9.0 0.00 0.00 0.00 58 1016.3
20260510185052 79 276 4.0 9.0 0.00 0.00 0.00 58 1016.3
20260510184824 79 277 4.0 9.0 0.00 0.00 0.00 57 1016.3
20260510184751 79 282 4.0 9.0 0.00 0.00 0.00 57 1016.4
20260510184621 79 296 3.0 9.0 0.00 0.00 0.00 57 1016.4
20260510184530 79 281 4.0 9.0 0.00 0.00 0.00 57 1016.4
20260510184417 79 302 4.0 9.0 0.00 0.00 0.00 58 1016.4
20260510184326 79 280 3.0 9.0 0.00 0.00 0.00 58 1016.4
20260510184212 79 273 1.0 6.0 0.00 0.00 0.00 58 1016.4
20260510184119 79 261 1.0 6.0 0.00 0.00 0.00 57 1016.4
20260510184030 79 216 2.0 7.0 0.00 0.00 0.00 58 1016.4
20260510183917 79 167 2.0 7.0 0.00 0.00 0.00 58 1016.3
20260510183825 79 336 2.0 7.0 0.00 0.00 0.00 57 1016.3
20260510183731 79 78 2.0 7.0 0.00 0.00 0.00 57 1016.4
20260510183618 79 140 3.0 7.0 0.00 0.00 0.00 57 1016.4
20260510183552 79 107 4.0 7.0 0.00 0.00 0.00 58 1016.4
20260510183347 79 131 5.0 7.0 0.00 0.00 0.00 58 1016.3
20260510183252 79 188 4.0 7.0 0.00 0.00 0.00 57 1016.5
20260510183138 79 184 3.0 8.0 0.00 0.00 0.00 60 1016.5
20260510183024 79 186 2.0 8.0 0.00 0.00 0.00 60 1016.5
20260510182931 79 156 2.0 8.0 0.00 0.00 0.00 59 1016.4
20260510182822 79 116 3.0 8.0 0.00 0.00 0.00 58 1016.4
20260510182729 79 248 3.0 8.0 0.00 0.00 0.00 57 1016.5
20260510182616 79 244 2.0 8.0 0.00 0.00 0.00 57 1016.4
20260510182523 79 314 4.0 8.0 0.00 0.00 0.00 57 1016.4
20260510182432 79 327 5.0 8.0 0.00 0.00 0.00 57 1016.5
20260510182340 79 273 5.0 8.0 0.00 0.00 0.00 58 1016.4
20260510182243 79 321 3.0 9.0 0.00 0.00 0.00 59 1016.4
20260510182153 79 294 3.0 9.0 0.00 0.00 0.00 62 1016.5
20260510182103 79 290 3.0 9.0 0.00 0.00 0.00 61 1016.5
20260510181817 79 297 4.0 9.0 0.00 0.00 0.00 61 1016.5
20260510181726 79 267 5.0 9.0 0.00 0.00 0.00 61 1016.5
20260510181618 79 248 5.0 9.0 0.00 0.00 0.00 61 1016.5
20260510181525 78 321 5.0 9.0 0.00 0.00 0.00 60 1016.5
20260510181412 78 257 4.0 9.0 0.00 0.00 0.00 59 1016.5
20260510181318 78 291 4.0 9.0 0.00 0.00 0.00 59 1016.5
20260510181112 79 341 4.0 9.0 0.00 0.00 0.00 58 1016.5
20260510181043 79 327 4.0 9.0 0.00 0.00 0.00 58 1016.5
20260510180930 79 340 4.0 8.0 0.00 0.00 0.00 58 1016.5
20260510180745 79 304 4.0 7.0 0.00 0.00 0.00 58 1016.6
20260510180630 79 328 4.0 7.0 0.00 0.00 0.00 58 1016.6
20260510180606 79 344 3.0 7.0 0.00 0.00 0.00 58 1016.6
20260510180319 79 325 3.0 7.0 0.00 0.00 0.00 58 1016.7
20260510180227 79 328 3.0 9.0 0.00 0.00 0.00 58 1016.7
20260510180115 79 294 4.0 9.0 0.00 0.00 0.00 59 1016.7
20260510180022 80 239 4.0 9.0 0.00 0.00 0.00 58 1016.7
20260510175913 80 304 3.0 9.0 0.00 0.00 0.00 58 1016.7
20260510175822 80 260 3.0 9.0 0.00 0.00 0.00 58 1016.7
20260510175728 80 299 3.0 9.0 0.00 0.00 0.00 57 1016.7
20260510175637 80 284 4.0 9.0 0.00 0.00 0.00 57 1016.7
20260510175543 80 294 5.0 9.0 0.00 0.00 0.00 58 1016.7
20260510175428 80 347 4.0 9.0 0.00 0.00 0.00 58 1016.8
20260510175317 80 331 3.0 9.0 0.00 0.00 0.00 58 1016.7
20260510175249 80 296 4.0 9.0 0.00 0.00 0.00 57 1016.7
20260510175217 80 257 4.0 9.0 0.00 0.00 0.00 58 1016.8
20260510175127 80 203 5.0 9.0 0.00 0.00 0.00 58 1016.7
20260510174820 80 181 6.0 9.0 0.00 0.00 0.00 57 1016.8
20260510174746 80 185 4.0 9.0 0.00 0.00 0.00 58 1016.8
20260510174612 80 215 3.0 8.0 0.00 0.00 0.00 60 1016.8
20260510174523 80 233 2.0 8.0 0.00 0.00 0.00 61 1016.8
20260510174431 80 93 3.0 8.0 0.00 0.00 0.00 59 1016.7
20260510174317 79 263 3.0 8.0 0.00 0.00 0.00 59 1016.8
20260510174224 79 229 4.0 8.0 0.00 0.00 0.00 59 1016.8
20260510174152 79 299 3.0 7.0 0.00 0.00 0.00 61 1016.7
20260510174017 79 263 2.0 6.0 0.00 0.00 0.00 62 1016.8
20260510173949 79 288 1.0 4.0 0.00 0.00 0.00 60 1016.8
20260510173816 79 195 0.0 4.0 0.00 0.00 0.00 58 1016.8
20260510173725 79 34 1.0 4.0 0.00 0.00 0.00 61 1016.8
20260510173651 79 34 2.0 4.0 0.00 0.00 0.00 61 1016.8
20260510173623 79 34 3.0 4.0 0.00 0.00 0.00 60 1016.7
20260510173340 78 28 3.0 6.0 0.00 0.00 0.00 60 1016.9
20260510173228 78 5 2.0 6.0 0.00 0.00 0.00 61 1016.9
20260510173115 78 10 2.0 6.0 0.00 0.00 0.00 61 1016.8
20260510173022 78 302 2.0 6.0 0.00 0.00 0.00 60 1016.8
20260510172950 78 302 2.0 6.0 0.00 0.00 0.00 64 1016.8
20260510172727 77 285 1.0 6.0 0.00 0.00 0.00 62 1016.9
20260510172520 77 284 3.0 6.0 0.00 0.00 0.00 63 1016.8
20260510172426 77 319 3.0 7.0 0.00 0.00 0.00 63 1016.8
20260510172314 77 292 2.0 7.0 0.00 0.00 0.00 62 1016.9
20260510172223 77 295 1.0 7.0 0.00 0.00 0.00 62 1016.9
20260510172115 78 310 1.0 7.0 0.00 0.00 0.00 63 1016.9
20260510172046 78 322 1.0 7.0 0.00 0.00 0.00 61 1016.9
20260510171819 78 296 2.0 7.0 0.00 0.00 0.00 62 1017.0
20260510171725 78 202 2.0 7.0 0.00 0.00 0.00 62 1017.0
20260510171617 78 276 3.0 7.0 0.00 0.00 0.00 65 1016.9
20260510171524 78 290 3.0 5.0 0.00 0.00 0.00 66 1016.9
20260510171432 78 243 3.0 5.0 0.00 0.00 0.00 66 1016.9
20260510171318 78 249 2.0 5.0 0.00 0.00 0.00 64 1016.9
20260510171225 78 286 1.0 4.0 0.00 0.00 0.00 64 1016.9
20260510171151 78 276 2.0 4.0 0.00 0.00 0.00 64 1016.9
20260510171023 78 326 1.0 4.0 0.00 0.00 0.00 63 1016.8
20260510170930 78 321 1.0 4.0 0.00 0.00 0.00 63 1016.9
20260510170817 78 5 2.0 4.0 0.00 0.00 0.00 63 1016.8
20260510170726 78 12 2.0 6.0 0.00 0.00 0.00 63 1016.8
20260510170633 78 355 2.0 6.0 0.00 0.00 0.00 65 1016.9
20260510170608 78 342 2.0 7.0 0.00 0.00 0.00 64 1016.9
20260510170321 78 10 1.0 7.0 0.00 0.00 0.00 65 1016.8
20260510170228 78 342 1.0 7.0 0.00 0.00 0.00 65 1016.8
20260510170117 78 298 2.0 7.0 0.00 0.00 0.00 65 1016.9
20260510170024 78 299 3.0 7.0 0.00 0.00 0.00 64 1016.9
20260510165914 78 284 4.0 7.0 0.00 0.00 0.00 64 1016.9
20260510165822 78 296 4.0 7.0 0.00 0.00 0.00 65 1016.9
20260510165730 78 275 4.0 7.0 0.00 0.00 0.00 65 1016.9
20260510165616 78 267 3.0 6.0 0.00 0.00 0.00 66 1016.9
20260510165523 78 283 3.0 6.0 0.00 0.00 0.00 68 1016.9
20260510165431 78 280 3.0 6.0 0.00 0.00 0.00 68 1016.9
20260510165322 77 276 2.0 6.0 0.00 0.00 0.00 68 1016.9
20260510165251 77 261 2.0 6.0 0.00 0.00 0.00 68 1016.9
20260510165117 77 250 2.0 8.0 0.00 0.00 0.00 68 1016.9
20260510165047 77 272 3.0 8.0 0.00 0.00 0.00 69 1016.9
20260510164820 77 287 3.0 8.0 0.00 0.00 0.00 69 1016.9
20260510164712 77 306 2.0 8.0 0.00 0.00 0.00 69 1016.9
20260510164619 77 325 2.0 8.0 0.00 0.00 0.00 69 1017.0
20260510164525 77 290 3.0 8.0 0.00 0.00 0.00 72 1017.0
20260510164413 77 187 4.0 8.0 0.00 0.00 0.00 71 1017.1
20260510164320 77 173 3.0 8.0 0.00 0.00 0.00 71 1017.0
20260510164226 77 194 2.0 8.0 0.00 0.00 0.00 72 1017.0
20260510164118 77 193 1.0 5.0 0.00 0.00 0.00 73 1017.1
20260510164026 77 295 2.0 5.0 0.00 0.00 0.00 75 1017.1
20260510163915 77 116 3.0 5.0 0.00 0.00 0.00 73 1017.1
20260510163822 77 128 3.0 5.0 0.00 0.00 0.00 72 1017.1
20260510163727 77 114 3.0 5.0 0.00 0.00 0.00 72 1017.0
20260510163636 77 138 3.0 5.0 0.00 0.00 0.00 73 1017.1
20260510163611 76 193 2.0 8.0 0.00 0.00 0.00 74 1017.1
20260510163324 76 49 1.0 8.0 0.00 0.00 0.00 74 1017.1
20260510163230 76 71 0.0 8.0 0.00 0.00 0.00 75 1017.1
20260510163117 76 39 0.0 8.0 0.00 0.00 0.00 74 1017.1
20260510163029 76 155 1.0 8.0 0.00 0.00 0.00 75 1017.1
20260510162918 76 156 3.0 8.0 0.00 0.00 0.00 75 1017.2
20260510162731 76 215 4.0 8.0 0.00 0.00 0.00 73 1017.2
20260510162619 76 218 3.0 8.0 0.00 0.00 0.00 74 1017.2
20260510162528 76 190 1.0 4.0 0.00 0.00 0.00 75 1017.2
20260510162419 76 147 1.0 4.0 0.00 0.00 0.00 75 1017.2
20260510162326 75 252 0.0 4.0 0.00 0.00 0.00 76 1017.2
20260510162214 75 273 1.0 4.0 0.00 0.00 0.00 75 1017.2
20260510162122 75 273 1.0 7.0 0.00 0.00 0.00 74 1017.2
20260510162056 75 239 1.0 7.0 0.00 0.00 0.00 75 1017.2
20260510161829 75 250 0.0 7.0 0.00 0.00 0.00 76 1017.2
20260510161737 75 339 1.0 7.0 0.00 0.00 0.00 77 1017.0
20260510161622 75 321 1.0 7.0 0.00 0.00 0.00 78 1017.0
20260510161530 75 321 2.0 7.0 0.00 0.00 0.00 77 1017.1
20260510161417 75 310 2.0 7.0 0.00 0.00 0.00 78 1017.1
20260510161329 75 279 2.0 7.0 0.00 0.00 0.00 77 1017.1
20260510161216 75 270 4.0 7.0 0.00 0.00 0.00 77 1017.1
20260510161125 75 250 4.0 7.0 0.00 0.00 0.00 77 1017.1
20260510161032 75 215 4.0 8.0 0.00 0.00 0.00 77 1017.0
20260510160920 75 219 3.0 8.0 0.00 0.00 0.00 78 1017.1
20260510160830 75 242 3.0 8.0 0.00 0.00 0.00 78 1017.1
20260510160717 75 165 3.0 7.0 0.00 0.00 0.00 79 1017.2
20260510160644 75 157 3.0 7.0 0.00 0.00 0.00 78 1017.2
20260510160554 75 163 3.0 7.0 0.00 0.00 0.00 78 1017.2
20260510160328 74 319 2.0 7.0 0.00 0.00 0.00 78 1017.2
20260510160221 74 306 3.0 7.0 0.00 0.00 0.00 78 1017.2
20260510160126 74 279 3.0 7.0 0.00 0.00 0.00 78 1017.2
20260510160014 74 250 3.0 6.0 0.00 0.00 0.00 79 1017.2
20260510155923 74 186 3.0 7.0 0.00 0.00 0.00 80 1017.2
20260510155830 74 187 3.0 8.0 0.00 0.00 0.00 80 1017.1
20260510155718 74 118 2.0 9.0 0.00 0.00 0.00 80 1017.1
20260510155630 74 109 2.0 9.0 0.00 0.00 0.00 79 1017.1
20260510155538 74 317 3.0 9.0 0.00 0.00 0.00 79 1017.0
20260510155331 74 252 4.0 9.0 0.00 0.00 0.00 79 1017.1
20260510155239 74 180 5.0 9.0 0.00 0.00 0.00 78 1016.9
20260510155205 74 189 5.0 9.0 0.00 0.00 0.00 79 1017.0
20260510155119 74 233 5.0 9.0 0.00 0.00 0.00 79 1017.0
20260510154812 74 130 4.0 6.0 0.00 0.00 0.00 79 1016.9
20260510154720 74 113 4.0 6.0 0.00 0.00 0.00 79 1016.9
20260510154626 74 169 3.0 6.0 0.00 0.00 0.00 79 1016.9
20260510154513 74 178 2.0 6.0 0.00 0.00 0.00 79 1017.0
20260510154425 74 269 3.0 6.0 0.00 0.00 0.00 79 1017.0
20260510154312 74 275 3.0 6.0 0.00 0.00 0.00 79 1016.9
20260510154219 74 264 3.0 6.0 0.00 0.00 0.00 80 1016.8
20260510154126 74 259 2.0 4.0 0.00 0.00 0.00 79 1016.8
20260510154013 74 199 1.0 4.0 0.00 0.00 0.00 79 1016.9
20260510153925 74 123 1.0 4.0 0.00 0.00 0.00 79 1016.9
20260510153813 74 212 1.0 4.0 0.00 0.00 0.00 79 1016.9
20260510153740 73 182 1.0 4.0 0.00 0.00 0.00 80 1016.9
20260510153646 73 203 2.0 4.0 0.00 0.00 0.00 80 1016.9
20260510153556 73 203 2.0 4.0 0.00 0.00 0.00 80 1016.9
20260510153314 73 282 2.0 4.0 0.00 0.00 0.00 80 1016.9
20260510153221 73 171 1.0 3.0 0.00 0.00 0.00 80 1016.9
20260510153129 73 169 1.0 3.0 0.00 0.00 0.00 80 1016.9
20260510153017 73 171 0.0 3.0 0.00 0.00 0.00 81 1016.9
20260510152924 73 306 0.0 7.0 0.00 0.00 0.00 81 1016.9
20260510152852 73 306 1.0 7.0 0.00 0.00 0.00 81 1017.0
20260510152721 73 306 2.0 7.0 0.00 0.00 0.00 81 1016.9
20260510152629 73 306 1.0 7.0 0.00 0.00 0.00 82 1016.9
20260510152536 72 266 1.0 7.0 0.00 0.00 0.00 83 1016.9
20260510152423 72 148 1.0 7.0 0.00 0.00 0.00 82 1016.9
20260510152312 72 143 1.0 7.0 0.00 0.00 0.00 82 1016.8
20260510152221 72 67 2.0 7.0 0.00 0.00 0.00 82 1016.8
20260510152149 72 136 1.0 7.0 0.00 0.00 0.00 82 1017.0
20260510152122 72 158 1.0 4.0 0.00 0.00 0.00 83 1016.8
20260510151815 72 84 1.0 4.0 0.00 0.00 0.00 83 1016.8
20260510151721 71 89 2.0 8.0 0.00 0.00 0.00 84 1016.8
20260510151647 71 83 3.0 8.0 0.00 0.00 0.00 84 1016.8
20260510151518 71 84 2.0 8.0 0.00 0.00 0.00 84 1016.8
20260510151426 71 83 2.0 8.0 0.00 0.00 0.00 85 1016.8
20260510151332 71 76 1.0 8.0 0.00 0.00 0.00 85 1016.9
20260510151220 71 90 1.0 8.0 0.00 0.00 0.00 85 1016.9
20260510151148 71 155 1.0 8.0 0.00 0.00 0.00 84 1016.9
20260510151016 71 162 3.0 8.0 0.00 0.00 0.00 85 1016.9
20260510150943 70 144 3.0 8.0 0.00 0.00 0.00 86 1016.9
20260510150813 70 159 2.0 5.0 0.00 0.00 0.00 86 1016.8
20260510150719 70 168 1.0 5.0 0.00 0.00 0.00 87 1016.9
20260510150646 70 200 1.0 4.0 0.00 0.00 0.00 87 1016.9
20260510150616 70 149 0.0 3.0 0.00 0.00 0.00 88 1017.0
20260510150314 70 150 0.0 3.0 0.00 0.00 0.00 89 1017.0
20260510150222 69 150 1.0 3.0 0.00 0.00 0.00 88 1017.0
20260510150129 69 150 1.0 3.0 0.00 0.00 0.00 88 1016.9
20260510150017 69 150 1.0 3.0 0.00 0.00 0.00 89 1016.8
20260510145925 69 148 1.0 3.0 0.00 0.00 0.00 90 1016.8
20260510145812 69 183 1.0 3.0 0.00 0.00 0.00 90 1016.9
20260510145724 69 144 1.0 3.0 0.00 0.00 0.00 91 1016.9
20260510145631 68 53 1.0 3.0 0.00 0.00 0.00 92 1016.9
20260510145540 68 33 1.0 3.0 0.00 0.00 0.00 93 1016.8
20260510145424 68 39 0.0 5.0 0.00 0.00 0.00 93 1016.8
20260510145331 68 86 1.0 5.0 0.00 0.00 0.00 93 1016.9
20260510145220 67 63 0.0 5.0 0.00 0.00 0.00 93 1016.9
20260510145130 67 63 0.0 5.0 0.00 0.00 0.00 93 1016.9
20260510145100 67 63 0.0 5.0 0.00 0.00 0.00 94 1016.9
20260510144813 67 128 1.0 5.0 0.00 0.00 0.00 94 1016.9
20260510144722 67 128 2.0 5.0 0.00 0.00 0.00 94 1016.9
20260510144649 67 128 3.0 5.0 0.00 0.00 0.00 94 1016.9
20260510144540 66 157 2.0 4.0 0.00 0.00 0.00 96 1016.9
20260510144427 66 122 1.0 4.0 0.00 0.00 0.00 96 1016.9
20260510144334 66 182 0.0 2.0 0.00 0.00 0.00 96 1017.0
20260510144239 66 45 1.0 2.0 0.00 0.00 0.00 96 1017.0
20260510144126 66 44 0.0 3.0 0.00 0.00 0.00 96 1017.0
20260510144033 65 87 0.0 4.0 0.00 0.00 0.00 96 1017.1
20260510143920 65 168 0.0 4.0 0.00 0.00 0.00 96 1017.1
20260510143847 65 168 0.0 4.0 0.00 0.00 0.00 96 1017.1
20260510143738 65 168 0.0 4.0 0.00 0.00 0.00 97 1017.0
20260510143625 65 168 1.0 4.0 0.00 0.00 0.00 96 1017.0
20260510143555 65 168 1.0 4.0 0.00 0.00 0.00 97 1017.0
20260510143327 65 173 2.0 4.0 0.00 0.00 0.00 97 1017.0
20260510143215 65 186 2.0 4.0 0.00 0.00 0.00 97 1017.1
20260510143147 65 184 2.0 4.0 0.00 0.00 0.00 97 1017.1
20260510143015 65 182 1.0 4.0 0.00 0.00 0.00 97 1017.1
20260510142922 65 183 1.0 4.0 0.00 0.00 0.00 97 1017.1
20260510142829 65 161 1.0 4.0 0.00 0.00 0.00 97 1017.0
20260510142716 65 161 2.0 4.0 0.00 0.00 0.00 97 1017.0
20260510142644 65 188 2.0 4.0 0.00 0.00 0.00 97 1017.0
20260510142514 64 213 2.0 4.0 0.00 0.00 0.00 97 1017.0
20260510142421 64 187 2.0 4.0 0.00 0.00 0.00 97 1017.0
20260510142329 64 256 2.0 4.0 0.00 0.00 0.00 97 1017.0
20260510142217 64 256 2.0 4.0 0.00 0.00 0.00 97 1017.0
20260510142145 64 202 2.0 4.0 0.00 0.00 0.00 97 1017.0
20260510142058 64 220 2.0 4.0 0.00 0.00 0.00 97 1017.0
20260510141831 64 190 2.0 4.0 0.00 0.00 0.00 97 1017.1
20260510141718 64 219 1.0 4.0 0.00 0.00 0.00 98 1016.9
20260510141625 64 212 1.0 4.0 0.00 0.00 0.00 98 1016.9
20260510141531 64 184 1.0 4.0 0.00 0.00 0.00 97 1016.9
20260510141438 64 198 2.0 4.0 0.00 0.00 0.00 97 1017.0
20260510141330 64 222 2.0 4.0 0.00 0.00 0.00 97 1017.0
20260510141216 64 194 1.0 4.0 0.00 0.00 0.00 97 1017.0
20260510141123 64 224 1.0 4.0 0.00 0.00 0.00 97 1017.0
20260510141030 64 214 1.0 4.0 0.00 0.00 0.00 97 1017.0
20260510140917 64 190 2.0 4.0 0.00 0.00 0.00 97 1017.1
20260510140845 64 202 2.0 4.0 0.00 0.00 0.00 98 1017.1
20260510140715 64 191 2.0 4.0 0.00 0.00 0.00 98 1017.0
20260510140622 64 197 1.0 4.0 0.00 0.00 0.00 98 1017.0
20260510140552 64 43 1.0 4.0 0.00 0.00 0.00 98 1017.1
20260510140327 64 99 1.0 4.0 0.00 0.00 0.00 98 1017.2
20260510140213 63 99 1.0 4.0 0.00 0.00 0.00 98 1017.2
20260510140145 63 100 1.0 4.0 0.00 0.00 0.00 98 1017.2
20260510140052 63 100 1.0 4.0 0.00 0.00 0.00 98 1017.1
20260510135918 63 104 1.0 4.0 0.00 0.00 0.00 98 1017.1
20260510135825 63 133 2.0 4.0 0.00 0.00 0.00 98 1017.1
20260510135733 63 133 2.0 4.0 0.00 0.00 0.00 97 1017.1
20260510135620 63 144 2.0 4.0 0.00 0.00 0.00 97 1017.0
20260510135527 63 138 1.0 4.0 0.00 0.00 0.00 97 1017.0
20260510135438 63 179 0.0 4.0 0.00 0.00 0.00 97 1017.0
20260510135324 63 179 1.0 6.0 0.00 0.00 0.00 98 1017.0
20260510135212 63 184 2.0 6.0 0.00 0.00 0.00 98 1017.0
20260510135140 63 188 2.0 6.0 0.00 0.00 0.00 97 1017.0
20260510135049 63 184 2.0 6.0 0.00 0.00 0.00 97 1017.0
20260510134826 63 150 2.0 6.0 0.00 0.00 0.00 97 1017.0
20260510134713 63 111 2.0 6.0 0.00 0.00 0.00 97 1017.0
20260510134621 63 161 3.0 6.0 0.00 0.00 0.00 97 1017.0
20260510134529 63 192 3.0 6.0 0.00 0.00 0.00 97 1016.9
20260510134417 63 186 4.0 6.0 0.00 0.00 0.00 97 1016.8
20260510134329 63 198 3.0 5.0 0.00 0.00 0.00 98 1016.8
20260510134216 63 161 2.0 4.0 0.00 0.00 0.00 98 1016.8
20260510134123 63 171 2.0 5.0 0.00 0.00 0.00 98 1016.8
20260510134050 63 128 2.0 5.0 0.00 0.00 0.00 98 1016.7
20260510133914 63 177 2.0 5.0 0.00 0.00 0.00 98 1016.8
20260510133823 63 155 2.0 6.0 0.00 0.00 0.00 98 1016.8
20260510133715 63 148 2.0 6.0 0.00 0.00 0.00 97 1016.8
20260510133621 63 142 3.0 6.0 0.00 0.00 0.00 97 1016.8
20260510133551 63 193 3.0 6.0 0.00 0.00 0.00 97 1016.8
20260510133325 63 183 2.0 6.0 0.00 0.00 0.00 97 1016.8
20260510133215 63 188 3.0 6.0 0.00 0.00 0.00 97 1016.8
20260510133122 63 210 3.0 6.0 0.00 0.00 0.00 97 1016.8
20260510133029 63 230 4.0 6.0 0.00 0.00 0.00 97 1016.8
20260510132917 63 202 2.0 6.0 0.00 0.00 0.00 97 1016.8
20260510132824 63 217 2.0 4.0 0.00 0.00 0.00 97 1016.8
20260510132712 63 163 2.0 4.0 0.00 0.00 0.00 98 1016.8
20260510132625 63 154 3.0 4.0 0.00 0.00 0.00 98 1016.8
20260510132551 63 159 3.0 4.0 0.00 0.00 0.00 97 1016.7
20260510132418 63 117 2.0 4.0 0.00 0.00 0.00 98 1016.8
20260510132325 63 118 1.0 4.0 0.00 0.00 0.00 98 1016.8
20260510132213 63 128 1.0 4.0 0.00 0.00 0.00 98 1016.8
20260510132140 63 109 1.0 4.0 0.00 0.00 0.00 98 1016.8
20260510132114 63 98 0.0 4.0 0.00 0.00 0.00 97 1016.8
20260510131827 62 100 1.0 4.0 0.00 0.00 0.00 97 1016.7
20260510131714 62 169 2.0 4.0 0.00 0.00 0.00 97 1016.7
20260510131620 62 174 1.0 4.0 0.00 0.00 0.00 97 1016.7
20260510131528 62 130 0.0 3.0 0.00 0.00 0.00 97 1016.7
20260510131439 62 130 1.0 3.0 0.00 0.00 0.00 97 1016.6
20260510131326 62 130 2.0 3.0 0.00 0.00 0.00 97 1016.6
20260510131233 62 149 2.0 3.0 0.00 0.00 0.00 98 1016.8
20260510131120 63 103 1.0 3.0 0.00 0.00 0.00 98 1016.7
20260510131048 62 103 1.0 3.0 0.00 0.00 0.00 98 1016.7
20260510130935 62 82 2.0 3.0 0.00 0.00 0.00 98 1016.7
20260510130820 62 74 2.0 3.0 0.00 0.00 0.00 98 1016.7
20260510130712 62 74 1.0 3.0 0.00 0.00 0.00 98 1016.7
20260510130620 62 74 1.0 2.0 0.00 0.00 0.00 98 1016.7
20260510130550 62 74 1.0 2.0 0.00 0.00 0.00 97 1016.7
20260510130345 62 74 1.0 2.0 0.00 0.00 0.00 97 1016.6
20260510130212 62 74 1.0 3.0 0.00 0.00 0.00 97 1016.6
20260510130145 62 84 0.0 3.0 0.00 0.00 0.00 97 1016.6
20260510130032 62 120 0.0 3.0 0.00 0.00 0.00 97 1016.6
20260510125919 62 120 1.0 3.0 0.00 0.00 0.00 98 1016.5
20260510125826 62 120 1.0 3.0 0.00 0.00 0.00 97 1016.5
20260510125735 62 121 1.0 3.0 0.00 0.00 0.00 97 1016.5
20260510125642 62 102 2.0 3.0 0.00 0.00 0.00 97 1016.5
20260510125528 62 98 2.0 3.0 0.00 0.00 0.00 97 1016.5
20260510125419 62 105 2.0 3.0 0.00 0.00 0.00 97 1016.5
20260510125327 62 96 2.0 3.0 0.00 0.00 0.00 97 1016.5
20260510125213 62 121 1.0 3.0 0.00 0.00 0.00 97 1016.5
20260510125120 62 121 0.0 3.0 0.00 0.00 0.00 97 1016.5
20260510125055 62 121 0.0 3.0 0.00 0.00 0.00 97 1016.5
20260510124828 62 121 0.0 2.0 0.00 0.00 0.00 97 1016.4
20260510124716 62 120 1.0 2.0 0.00 0.00 0.00 97 1016.4
20260510124623 62 120 1.0 2.0 0.00 0.00 0.00 97 1016.4
20260510124530 62 120 0.0 2.0 0.00 0.00 0.00 97 1016.4
20260510124422 62 121 0.0 2.0 0.00 0.00 0.00 97 1016.4
20260510124330 62 121 0.0 3.0 0.00 0.00 0.00 97 1016.4
20260510124217 62 121 0.0 3.0 0.00 0.00 0.00 97 1016.5
20260510124125 62 121 0.0 3.0 0.00 0.00 0.00 97 1016.5
20260510124013 62 121 0.0 3.0 0.00 0.00 0.00 97 1016.4
20260510123920 62 120 0.0 3.0 0.00 0.00 0.00 97 1016.4
20260510123812 62 121 0.0 4.0 0.00 0.00 0.00 97 1016.4
20260510123720 62 121 1.0 4.0 0.00 0.00 0.00 97 1016.3
20260510123627 62 121 1.0 4.0 0.00 0.00 0.00 97 1016.3
20260510123556 62 121 1.0 4.0 0.00 0.00 0.00 97 1016.3
20260510123334 62 113 2.0 4.0 0.00 0.00 0.00 97 1016.4
20260510123221 62 113 3.0 4.0 0.00 0.00 0.00 97 1016.4
20260510123149 62 126 3.0 4.0 0.00 0.00 0.00 97 1016.3
20260510123015 62 112 2.0 6.0 0.00 0.00 0.00 97 1016.3
20260510122923 62 115 1.0 6.0 0.00 0.00 0.00 97 1016.3
20260510122831 62 132 1.0 6.0 0.00 0.00 0.00 97 1016.3
20260510122722 62 113 2.0 6.0 0.00 0.00 0.00 97 1016.3
20260510122649 61 115 2.0 6.0 0.00 0.00 0.00 97 1016.2
20260510122516 62 115 3.0 6.0 0.00 0.00 0.00 97 1016.2
20260510122445 62 125 3.0 6.0 0.00 0.00 0.00 97 1016.2
20260510122331 62 126 3.0 6.0 0.00 0.00 0.00 97 1016.2
20260510122218 61 142 3.0 5.0 0.00 0.00 0.00 97 1016.2
20260510122125 61 119 3.0 5.0 0.00 0.00 0.00 97 1016.2
20260510122100 61 122 3.0 5.0 0.00 0.00 0.00 97 1016.1
20260510121832 61 145 3.0 5.0 0.00 0.00 0.00 97 1016.1
20260510121720 61 150 4.0 5.0 0.00 0.00 0.00 97 1016.1
20260510121627 62 146 4.0 5.0 0.00 0.00 0.00 97 1016.1
20260510121519 62 133 3.0 5.0 0.00 0.00 0.00 97 1016.2
20260510121446 61 140 3.0 5.0 0.00 0.00 0.00 97 1016.2
20260510121331 61 134 3.0 5.0 0.00 0.00 0.00 97 1016.2
20260510121218 61 141 4.0 5.0 0.00 0.00 0.00 97 1016.1
20260510121125 61 132 4.0 6.0 0.00 0.00 0.00 97 1016.1
20260510121014 62 139 4.0 6.0 0.00 0.00 0.00 97 1016.2
20260510120926 61 133 3.0 6.0 0.00 0.00 0.00 97 1016.2
20260510120813 61 140 2.0 6.0 0.00 0.00 0.00 97 1016.2
20260510120741 61 154 2.0 6.0 0.00 0.00 0.00 97 1016.2
20260510120647 61 151 2.0 6.0 0.00 0.00 0.00 97 1016.2
20260510120616 61 187 2.0 6.0 0.00 0.00 0.00 97 1016.1
20260510120312 61 119 3.0 6.0 0.00 0.00 0.00 97 1016.0
20260510120219 61 189 4.0 6.0 0.00 0.00 0.00 97 1016.0
20260510120126 61 191 4.0 6.0 0.00 0.00 0.00 97 1016.0
20260510120012 61 183 2.0 5.0 0.00 0.00 0.00 97 1016.1
20260510115919 61 169 2.0 5.0 0.00 0.00 0.00 97 1016.1
20260510115826 61 148 2.0 5.0 0.00 0.00 0.00 97 1016.1
20260510115716 61 142 1.0 5.0 0.00 0.00 0.00 97 1016.0
20260510115624 61 170 1.0 5.0 0.00 0.00 0.00 97 1016.0
20260510115552 61 180 1.0 5.0 0.00 0.00 0.00 97 1016.1
20260510115418 61 144 2.0 5.0 0.00 0.00 0.00 97 1016.0
20260510115326 61 189 2.0 5.0 0.00 0.00 0.00 97 1016.0
20260510115214 61 182 1.0 3.0 0.00 0.00 0.00 97 1015.9
20260510115126 61 148 1.0 3.0 0.00 0.00 0.00 97 1015.9
20260510115057 61 148 2.0 3.0 0.00 0.00 0.00 97 1015.9
20260510114830 61 201 1.0 4.0 0.00 0.00 0.00 97 1015.8
20260510114717 61 167 1.0 3.0 0.00 0.00 0.00 97 1015.8
20260510114628 61 122 1.0 3.0 0.00 0.00 0.00 97 1015.8
20260510114516 61 131 1.0 3.0 0.00 0.00 0.00 97 1015.8
20260510114424 61 131 2.0 3.0 0.00 0.00 0.00 97 1015.8
20260510114332 61 124 2.0 3.0 0.00 0.00 0.00 97 1015.9
20260510114218 61 153 1.0 3.0 0.00 0.00 0.00 97 1015.7
20260510114125 61 137 2.0 3.0 0.00 0.00 0.00 97 1015.7
20260510114017 61 146 2.0 3.0 0.00 0.00 0.00 97 1015.6
20260510113924 61 145 2.0 3.0 0.00 0.00 0.00 97 1015.6
20260510113812 61 126 2.0 3.0 0.00 0.00 0.00 97 1015.6
20260510113720 61 126 2.0 3.0 0.00 0.00 0.00 97 1015.6
20260510113649 60 127 2.0 3.0 0.00 0.00 0.00 97 1015.6
20260510113601 60 135 2.0 3.0 0.00 0.00 0.00 97 1015.5
20260510113315 60 120 1.0 3.0 0.00 0.00 0.00 97 1015.5
20260510113223 60 126 1.0 2.0 0.00 0.00 0.00 97 1015.5
20260510113151 60 126 1.0 2.0 0.00 0.00 0.00 97 1015.5
20260510113016 60 126 1.0 2.0 0.00 0.00 0.00 97 1015.6
20260510112928 60 126 1.0 3.0 0.00 0.00 0.00 97 1015.6
20260510112814 60 126 1.0 4.0 0.00 0.00 0.00 97 1015.6
20260510112722 60 126 1.0 4.0 0.00 0.00 0.00 97 1015.6
20260510112630 60 126 1.0 4.0 0.00 0.00 0.00 97 1015.5
20260510112518 60 140 0.0 4.0 0.00 0.00 0.00 97 1015.5
20260510112446 60 140 1.0 4.0 0.00 0.00 0.00 97 1015.5
20260510112316 60 140 1.0 4.0 0.00 0.00 0.00 97 1015.4
20260510112223 60 140 2.0 4.0 0.00 0.00 0.00 97 1015.4
20260510112130 60 128 2.0 4.0 0.00 0.00 0.00 97 1015.4
20260510112059 60 132 2.0 4.0 0.00 0.00 0.00 97 1015.4
20260510111832 60 148 2.0 4.0 0.00 0.00 0.00 97 1015.3
20260510111723 60 186 2.0 4.0 0.00 0.00 0.00 97 1015.3
20260510111630 60 175 2.0 4.0 0.00 0.00 0.00 97 1015.3
20260510111539 60 151 2.0 4.0 0.00 0.00 0.00 97 1015.2
20260510111426 60 149 2.0 4.0 0.00 0.00 0.00 97 1015.2
20260510111314 60 138 2.0 4.0 0.00 0.00 0.00 97 1015.2
20260510111241 60 140 1.0 4.0 0.00 0.00 0.00 97 1015.2
20260510111132 60 119 1.0 3.0 0.00 0.00 0.00 97 1015.2
20260510111019 60 142 2.0 3.0 0.00 0.00 0.00 97 1015.2
20260510110927 60 142 2.0 3.0 0.00 0.00 0.00 97 1015.2
20260510110836 60 142 1.0 3.0 0.00 0.00 0.00 97 1015.2
20260510110722 60 155 1.0 3.0 0.00 0.00 0.00 96 1015.2
20260510110629 60 155 1.0 3.0 0.00 0.00 0.00 96 1015.2
20260510110605 60 155 1.0 3.0 0.00 0.00 0.00 96 1015.1
20260510110319 60 155 1.0 3.0 0.00 0.00 0.00 96 1015.2
20260510110227 60 155 1.0 3.0 0.00 0.00 0.00 96 1015.2
20260510110134 60 155 0.0 0.0 0.00 0.00 0.00 96 1015.0
20260510110022 60 155 0.0 1.0 0.00 0.00 0.00 96 1015.0
20260510105953 60 155 0.0 1.0 0.00 0.00 0.00 96 1015.0
20260510105819 60 155 0.0 1.0 0.00 0.00 0.00 96 1014.9
20260510105747 60 155 0.0 1.0 0.00 0.00 0.00 96 1014.9
20260510105613 60 155 0.0 1.0 0.00 0.00 0.00 96 1014.9
20260510105521 60 155 0.0 1.0 0.00 0.00 0.00 96 1014.9
20260510105429 60 155 0.0 1.0 0.00 0.00 0.00 96 1014.9
20260510105319 60 155 0.0 1.0 0.00 0.00 0.00 96 1014.9
20260510105227 60 155 0.0 1.0 0.00 0.00 0.00 96 1014.9
20260510105154 60 155 1.0 1.0 0.00 0.00 0.00 96 1014.9
20260510105104 60 155 1.0 1.0 0.00 0.00 0.00 96 1014.8
20260510104818 59 155 1.0 1.0 0.00 0.00 0.00 96 1014.8
20260510104729 59 155 1.0 1.0 0.00 0.00 0.00 96 1014.8
20260510104616 59 155 0.0 1.0 0.00 0.00 0.00 96 1014.7
20260510104524 59 155 0.0 1.0 0.00 0.00 0.00 96 1014.7
20260510104432 59 155 0.0 1.0 0.00 0.00 0.00 96 1014.6
20260510104318 59 155 0.0 1.0 0.00 0.00 0.00 96 1014.7
20260510104230 59 155 0.0 1.0 0.00 0.00 0.00 96 1014.7
20260510104117 59 155 0.0 1.0 0.00 0.00 0.00 96 1014.6
20260510104024 59 155 0.0 1.0 0.00 0.00 0.00 96 1014.6
20260510103912 59 155 0.0 1.0 0.00 0.00 0.00 96 1014.6
20260510103819 59 155 1.0 1.0 0.00 0.00 0.00 96 1014.5
20260510103727 59 155 1.0 2.0 0.00 0.00 0.00 96 1014.5
20260510103620 59 155 1.0 2.0 0.00 0.00 0.00 96 1014.6
20260510103551 59 155 0.0 2.0 0.00 0.00 0.00 96 1014.5
20260510103324 59 155 0.0 3.0 0.00 0.00 0.00 96 1014.4
20260510103213 59 155 0.0 3.0 0.00 0.00 0.00 96 1014.4
20260510103124 59 155 0.0 3.0 0.00 0.00 0.00 96 1014.4
20260510103013 59 155 1.0 3.0 0.00 0.00 0.00 96 1014.5
20260510102921 59 155 1.0 3.0 0.00 0.00 0.00 96 1014.5
20260510102829 59 155 1.0 3.0 0.00 0.00 0.00 96 1014.3
20260510102716 59 155 1.0 3.0 0.00 0.00 0.00 96 1014.3
20260510102626 59 155 2.0 3.0 0.00 0.00 0.00 96 1014.3
20260510102514 59 158 2.0 3.0 0.00 0.00 0.00 96 1014.4
20260510102419 59 151 1.0 2.0 0.00 0.00 0.00 96 1014.4
20260510102328 59 151 1.0 3.0 0.00 0.00 0.00 96 1014.4
20260510102214 59 151 1.0 3.0 0.00 0.00 0.00 96 1014.4
20260510102121 59 151 1.0 3.0 0.00 0.00 0.00 96 1014.4
20260510102056 59 151 1.0 3.0 0.00 0.00 0.00 96 1014.4
20260510101829 59 151 1.0 3.0 0.00 0.00 0.00 96 1014.4
20260510101716 59 151 1.0 3.0 0.00 0.00 0.00 96 1014.3
20260510101624 58 151 2.0 3.0 0.00 0.00 0.00 96 1014.3
20260510101514 58 151 2.0 3.0 0.00 0.00 0.00 96 1014.3
20260510101422 58 151 2.0 3.0 0.00 0.00 0.00 96 1014.3
20260510101351 58 151 3.0 3.0 0.00 0.00 0.00 96 1014.2
20260510101218 58 142 2.0 3.0 0.00 0.00 0.00 96 1014.3
20260510101126 58 191 2.0 3.0 0.00 0.00 0.00 95 1014.3
20260510101012 58 191 2.0 2.0 0.00 0.00 0.00 95 1014.3
20260510100939 58 191 1.0 2.0 0.00 0.00 0.00 95 1014.4
20260510100830 58 191 1.0 2.0 0.00 0.00 0.00 95 1014.4
20260510100716 58 191 0.0 1.0 0.00 0.00 0.00 95 1014.4
20260510100625 58 191 0.0 1.0 0.00 0.00 0.00 95 1014.4
20260510100555 58 191 0.0 2.0 0.00 0.00 0.00 95 1014.4
20260510100313 58 191 0.0 2.0 0.00 0.00 0.00 95 1014.3
20260510100220 58 191 0.0 2.0 0.00 0.00 0.00 95 1014.3
20260510100127 58 191 0.0 2.0 0.00 0.00 0.00 95 1014.3
20260510100014 58 191 0.0 2.0 0.00 0.00 0.00 95 1014.2
20260510095943 58 191 1.0 2.0 0.00 0.00 0.00 95 1014.2
20260510095829 58 191 1.0 2.0 0.00 0.00 0.00 95 1014.2
20260510095721 58 191 1.0 2.0 0.00 0.00 0.00 95 1014.3
20260510095629 58 191 1.0 2.0 0.00 0.00 0.00 95 1014.3
20260510095516 58 191 1.0 2.0 0.00 0.00 0.00 95 1014.3
20260510095424 58 191 0.0 1.0 0.00 0.00 0.00 95 1014.3
20260510095330 58 191 0.0 1.0 0.00 0.00 0.00 95 1014.3
20260510095222 58 191 0.0 1.0 0.00 0.00 0.00 95 1014.3
20260510095128 58 191 0.0 1.0 0.00 0.00 0.00 95 1014.3
20260510095056 58 191 0.0 0.0 0.00 0.00 0.00 95 1014.1
20260510094849 58 191 0.0 0.0 0.00 0.00 0.00 95 1014.1
20260510094716 58 191 0.0 0.0 0.00 0.00 0.00 94 1014.2
20260510094623 58 191 0.0 0.0 0.00 0.00 0.00 94 1014.2
20260510094514 58 191 0.0 0.0 0.00 0.00 0.00 94 1014.3
20260510094421 58 191 0.0 0.0 0.00 0.00 0.00 94 1014.3
20260510094328 58 191 0.0 0.0 0.00 0.00 0.00 94 1014.1
20260510094216 58 191 0.0 0.0 0.00 0.00 0.00 94 1014.1
20260510094143 58 191 0.0 0.0 0.00 0.00 0.00 94 1014.1
20260510094014 58 191 0.0 0.0 0.00 0.00 0.00 94 1014.1
20260510093942 58 191 0.0 0.0 0.00 0.00 0.00 95 1014.1
20260510093827 58 191 0.0 0.0 0.00 0.00 0.00 95 1014.0
20260510093734 58 191 0.0 0.0 0.00 0.00 0.00 95 1014.1
20260510093640 58 191 0.0 0.0 0.00 0.00 0.00 95 1014.0
20260510093550 58 191 0.0 0.0 0.00 0.00 0.00 95 1014.0
20260510093328 58 191 0.0 0.0 0.00 0.00 0.00 95 1014.1
20260510093214 58 191 0.0 0.0 0.00 0.00 0.00 95 1014.0
20260510093123 58 191 0.0 0.0 0.00 0.00 0.00 95 1014.0
20260510093030 58 191 0.0 0.0 0.00 0.00 0.00 95 1014.1
20260510092919 58 191 0.0 0.0 0.00 0.00 0.00 95 1014.1
20260510092826 58 191 0.0 0.0 0.00 0.00 0.00 95 1014.1
20260510092737 58 191 0.0 0.0 0.00 0.00 0.00 95 1014.1
20260510092645 58 191 0.0 0.0 0.00 0.00 0.00 95 1014.1
20260510092531 58 191 0.0 0.0 0.00 0.00 0.00 95 1014.2
20260510092419 58 191 0.0 0.0 0.00 0.00 0.00 95 1014.2
20260510092346 58 191 0.0 0.0 0.00 0.00 0.00 95 1014.2
20260510092212 58 191 0.0 0.0 0.00 0.00 0.00 95 1014.2
20260510092124 58 191 0.0 0.0 0.00 0.00 0.00 95 1014.2
20260510092054 58 191 0.0 0.0 0.00 0.00 0.00 95 1014.2
20260510091847 58 191 0.0 0.0 0.00 0.00 0.00 95 1014.2
20260510091712 58 191 0.0 0.0 0.00 0.00 0.00 95 1014.1
20260510091640 58 191 0.0 0.0 0.00 0.00 0.00 94 1014.2
20260510091527 58 191 0.0 0.0 0.00 0.00 0.00 94 1014.2
20260510091418 58 191 0.0 0.0 0.00 0.00 0.00 94 1014.3
20260510091345 58 191 0.0 0.0 0.00 0.00 0.00 94 1014.3
20260510091232 58 191 0.0 0.0 0.00 0.00 0.00 94 1014.3
20260510091118 58 191 0.0 0.0 0.00 0.00 0.00 94 1014.2
20260510091027 58 191 0.0 0.0 0.00 0.00 0.00 94 1014.2
20260510090918 58 191 0.0 0.0 0.00 0.00 0.00 94 1014.3
20260510090826 58 191 0.0 0.0 0.00 0.00 0.00 94 1014.3
20260510090713 58 191 0.0 0.0 0.00 0.00 0.00 94 1014.4
20260510090620 58 191 0.0 0.0 0.00 0.00 0.00 94 1014.4
20260510090551 58 191 0.0 0.0 0.00 0.00 0.00 94 1014.3
20260510090330 59 191 0.0 0.0 0.00 0.00 0.00 94 1014.3
20260510090217 59 191 0.0 0.0 0.00 0.00 0.00 94 1014.3
20260510090126 59 191 0.0 0.0 0.00 0.00 0.00 94 1014.3
20260510090053 59 191 0.0 0.0 0.00 0.00 0.00 94 1014.3
20260510085918 59 191 0.0 0.0 0.00 0.00 0.00 94 1014.3
20260510085826 59 191 0.0 0.0 0.00 0.00 0.00 94 1014.3
20260510085716 59 191 0.0 0.0 0.00 0.00 0.00 94 1014.1
20260510085625 59 191 0.0 0.0 0.00 0.00 0.00 95 1014.1
20260510085531 59 191 0.0 0.0 0.00 0.00 0.00 95 1014.1
20260510085438 59 191 0.0 0.0 0.00 0.00 0.00 94 1014.2
20260510085324 59 191 0.0 0.0 0.00 0.00 0.00 94 1014.2
20260510085233 59 191 0.0 0.0 0.00 0.00 0.00 94 1014.1
20260510085205 59 191 0.0 0.0 0.00 0.00 0.00 94 1014.1
20260510085114 59 191 0.0 0.0 0.00 0.00 0.00 94 1014.0
20260510084827 59 191 0.0 0.0 0.00 0.00 0.00 94 1014.0
20260510084715 59 191 0.0 0.0 0.00 0.00 0.00 94 1014.0
20260510084622 59 191 0.0 0.0 0.00 0.00 0.00 94 1014.0
20260510084514 59 191 0.0 0.0 0.00 0.00 0.00 94 1013.9
20260510084421 59 191 0.0 0.0 0.00 0.00 0.00 95 1013.9
20260510084329 59 191 0.0 0.0 0.00 0.00 0.00 95 1014.0
20260510084218 59 191 0.0 0.0 0.00 0.00 0.00 95 1013.8
20260510084125 59 191 0.0 0.0 0.00 0.00 0.00 95 1013.8
20260510084018 59 191 0.0 2.0 0.00 0.00 0.00 95 1013.8
20260510083945 59 191 0.0 2.0 0.00 0.00 0.00 94 1013.8
20260510083831 59 191 0.0 2.0 0.00 0.00 0.00 94 1013.8
20260510083719 59 191 0.0 2.0 0.00 0.00 0.00 94 1013.7
20260510083625 59 191 0.0 3.0 0.00 0.00 0.00 94 1013.7
20260510083600 59 191 0.0 3.0 0.00 0.00 0.00 94 1013.8
20260510083313 59 191 1.0 3.0 0.00 0.00 0.00 94 1013.8
20260510083221 59 191 1.0 3.0 0.00 0.00 0.00 94 1013.8
20260510083128 59 191 1.0 3.0 0.00 0.00 0.00 94 1013.6
20260510083017 59 191 1.0 3.0 0.00 0.00 0.00 94 1013.6
20260510082929 59 191 2.0 3.0 0.00 0.00 0.00 94 1013.6
20260510082816 59 191 2.0 3.0 0.00 0.00 0.00 94 1013.5
20260510082724 59 194 2.0 3.0 0.00 0.00 0.00 94 1013.5
20260510082632 59 195 1.0 3.0 0.00 0.00 0.00 94 1013.5
20260510082518 59 211 0.0 0.0 0.00 0.00 0.00 94 1013.5
20260510082446 59 211 0.0 0.0 0.00 0.00 0.00 94 1013.5
20260510082316 59 297 0.0 0.0 0.00 0.00 0.00 94 1013.5
20260510082224 59 297 0.0 0.0 0.00 0.00 0.00 94 1013.5
20260510082123 59 297 0.0 0.0 0.00 0.00 0.00 94 1013.5
20260510081816 59 297 0.0 0.0 0.00 0.00 0.00 94 1013.5
20260510081726 59 297 0.0 0.0 0.00 0.00 0.00 94 1013.5
20260510081613 59 297 0.0 0.0 0.00 0.00 0.00 94 1013.4
20260510081541 59 297 0.0 0.0 0.00 0.00 0.00 94 1013.4
20260510081427 59 297 0.0 0.0 0.00 0.00 0.00 94 1013.4
20260510081314 59 297 0.0 0.0 0.00 0.00 0.00 94 1013.3
20260510081223 59 297 0.0 0.0 0.00 0.00 0.00 94 1013.3
20260510081114 59 297 0.0 0.0 0.00 0.00 0.00 94 1013.3
20260510081022 59 297 0.0 0.0 0.00 0.00 0.00 94 1013.3
20260510080927 59 297 0.0 0.0 0.00 0.00 0.00 94 1013.3
20260510080835 59 297 0.0 0.0 0.00 0.00 0.00 94 1013.3
20260510080721 59 297 0.0 0.0 0.00 0.00 0.00 94 1013.3
20260510080602 59 297 0.0 0.0 0.00 0.00 0.00 94 1013.3
20260510080315 59 297 0.0 0.0 0.00 0.00 0.00 94 1013.2
20260510080222 59 297 0.0 0.0 0.00 0.00 0.00 94 1013.2
20260510080130 59 297 0.0 0.0 0.00 0.00 0.00 93 1013.3
20260510080022 59 297 0.0 0.0 0.00 0.00 0.00 93 1013.3
20260510075929 59 297 0.0 0.0 0.00 0.00 0.00 93 1013.3
20260510075817 59 297 0.0 0.0 0.00 0.00 0.00 94 1013.3
20260510075725 59 297 0.0 0.0 0.00 0.00 0.00 93 1013.3
20260510075612 59 297 0.0 0.0 0.00 0.00 0.00 94 1013.3
20260510075523 59 297 0.0 0.0 0.00 0.00 0.00 94 1013.3
20260510075412 59 297 0.0 0.0 0.00 0.00 0.00 94 1013.2
20260510075320 59 297 0.0 0.0 0.00 0.00 0.00 94 1013.2
20260510075248 59 297 0.0 0.0 0.00 0.00 0.00 94 1013.2
20260510075134 59 297 0.0 0.0 0.00 0.00 0.00 94 1013.3
20260510075048 59 297 0.0 0.0 0.00 0.00 0.00 94 1013.3
20260510074822 59 297 0.0 0.0 0.00 0.00 0.00 94 1013.2
20260510074730 59 297 0.0 0.0 0.00 0.00 0.00 94 1013.2
20260510074638 59 297 0.0 0.0 0.00 0.00 0.00 93 1013.2
20260510074524 59 297 0.0 0.0 0.00 0.00 0.00 93 1013.2
20260510074412 59 297 0.0 0.0 0.00 0.00 0.00 93 1013.1
20260510074324 60 297 0.0 0.0 0.00 0.00 0.00 93 1013.1
20260510074232 60 297 0.0 0.0 0.00 0.00 0.00 93 1013.2
20260510074119 60 297 0.0 0.0 0.00 0.00 0.00 93 1013.1
20260510074026 60 297 0.0 0.0 0.00 0.00 0.00 93 1013.1
20260510073915 60 297 0.0 0.0 0.00 0.00 0.00 93 1013.2
20260510073843 60 297 0.0 0.0 0.00 0.00 0.00 93 1013.2
20260510073712 60 297 0.0 0.0 0.00 0.00 0.00 93 1013.2
20260510073620 60 297 0.0 0.0 0.00 0.00 0.00 93 1013.2
20260510073551 60 297 0.0 0.0 0.00 0.00 0.00 93 1013.2
20260510073325 60 297 0.0 0.0 0.00 0.00 0.00 93 1013.2
20260510073217 60 350 0.0 0.0 0.00 0.00 0.00 93 1013.2
20260510073124 60 350 0.0 0.0 0.00 0.00 0.00 93 1013.2
20260510073012 60 350 0.0 0.0 0.00 0.00 0.00 93 1013.2
20260510072919 60 350 0.0 0.0 0.00 0.00 0.00 93 1013.2
20260510072827 60 350 0.0 0.0 0.00 0.00 0.00 93 1013.2
20260510072714 60 350 0.0 0.0 0.00 0.00 0.00 93 1013.3
20260510072624 60 350 0.0 0.0 0.00 0.00 0.00 93 1013.3
20260510072512 60 350 0.0 0.0 0.00 0.00 0.00 93 1013.3
20260510072421 60 350 0.0 0.0 0.00 0.00 0.00 93 1013.3
20260510072327 60 350 0.0 0.0 0.00 0.00 0.00 93 1013.2
20260510072215 60 350 0.0 0.0 0.00 0.00 0.00 93 1013.3
20260510072143 60 350 0.0 0.0 0.00 0.00 0.00 93 1013.3
20260510072057 60 350 0.0 0.0 0.00 0.00 0.00 93 1013.2
20260510071831 60 350 0.0 0.0 0.00 0.00 0.00 93 1013.2
20260510071718 60 350 0.0 0.0 0.00 0.00 0.00 93 1013.2
20260510071625 60 350 0.0 0.0 0.00 0.00 0.00 93 1013.2
20260510071516 60 350 0.0 0.0 0.00 0.00 0.00 93 1013.3
20260510071423 60 350 0.0 0.0 0.00 0.00 0.00 93 1013.3
20260510071350 60 350 0.0 0.0 0.00 0.00 0.00 93 1013.3
20260510071218 60 350 0.0 0.0 0.00 0.00 0.00 93 1013.3
20260510071126 60 350 0.0 0.0 0.00 0.00 0.00 93 1013.3
20260510071015 60 350 0.0 0.0 0.00 0.00 0.00 93 1013.2
20260510070926 60 350 0.0 0.0 0.00 0.00 0.00 93 1013.2
20260510070833 60 350 0.0 0.0 0.00 0.00 0.00 93 1013.2
20260510070740 60 350 0.0 0.0 0.00 0.00 0.00 93 1013.3
20260510070648 60 350 0.0 0.0 0.00 0.00 0.00 93 1013.3
20260510070557 60 350 0.0 0.0 0.00 0.00 0.00 93 1013.2
20260510070314 60 350 0.0 0.0 0.00 0.00 0.00 93 1013.2
20260510070242 60 350 0.0 0.0 0.00 0.00 0.00 93 1013.2
20260510070128 60 350 0.0 0.0 0.00 0.00 0.00 93 1013.1
20260510070016 60 350 0.0 0.0 0.00 0.00 0.00 93 1013.2
20260510065944 60 350 0.0 0.0 0.00 0.00 0.00 93 1013.2
20260510065850 60 350 0.0 0.0 0.00 0.00 0.00 93 1013.2
20260510065716 60 350 0.0 0.0 0.00 0.00 0.00 93 1013.1
20260510065626 60 350 0.0 0.0 0.00 0.00 0.00 93 1013.1
20260510065514 60 350 0.0 0.0 0.00 0.00 0.00 92 1013.2
20260510065421 60 350 0.0 0.0 0.00 0.00 0.00 92 1013.2
20260510065329 60 350 0.0 0.0 0.00 0.00 0.00 92 1013.1
20260510065216 60 350 0.0 0.0 0.00 0.00 0.00 92 1013.2
20260510065057 61 350 0.0 0.0 0.00 0.00 0.00 92 1013.2
20260510064830 61 350 0.0 0.0 0.00 0.00 0.00 92 1013.1
20260510064717 61 350 0.0 0.0 0.00 0.00 0.00 92 1013.1
20260510064625 61 348 0.0 0.0 0.00 0.00 0.00 92 1013.1
20260510064517 61 238 0.0 0.0 0.00 0.00 0.00 92 1013.3
20260510064425 61 238 0.0 0.0 0.00 0.00 0.00 92 1013.3
20260510064313 61 238 0.0 0.0 0.00 0.00 0.00 92 1013.1
20260510064220 61 238 0.0 0.0 0.00 0.00 0.00 92 1013.1
20260510064127 61 238 0.0 0.0 0.00 0.00 0.00 92 1013.2
20260510064034 61 238 0.0 0.0 0.00 0.00 0.00 92 1013.2
20260510063925 61 238 0.0 0.0 0.00 0.00 0.00 92 1013.2
20260510063852 61 238 0.0 0.0 0.00 0.00 0.00 92 1013.2
20260510063719 61 238 0.0 0.0 0.00 0.00 0.00 92 1013.3
20260510063628 61 238 0.0 0.0 0.00 0.00 0.00 92 1013.3
20260510063558 61 238 0.0 0.0 0.00 0.00 0.00 92 1013.2
20260510063314 61 238 0.0 0.0 0.00 0.00 0.00 92 1013.3
20260510063223 61 238 0.0 0.0 0.00 0.00 0.00 92 1013.3
20260510063130 61 238 0.0 0.0 0.00 0.00 0.00 92 1013.3
20260510063017 61 238 0.0 0.0 0.00 0.00 0.00 91 1013.3
20260510062923 61 238 0.0 0.0 0.00 0.00 0.00 91 1013.3
20260510062814 62 238 0.0 0.0 0.00 0.00 0.00 91 1013.3
20260510062722 62 238 0.0 0.0 0.00 0.00 0.00 91 1013.3
20260510062630 62 238 0.0 0.0 0.00 0.00 0.00 91 1013.3
20260510062517 62 238 0.0 0.0 0.00 0.00 0.00 91 1013.3
20260510062444 62 238 0.0 0.0 0.00 0.00 0.00 91 1013.3
20260510062330 62 238 0.0 0.0 0.00 0.00 0.00 91 1013.3
20260510062222 62 238 0.0 0.0 0.00 0.00 0.00 91 1013.2
20260510062059 62 238 0.0 0.0 0.00 0.00 0.00 91 1013.3
20260510061813 62 138 0.0 0.0 0.00 0.00 0.00 91 1013.3
20260510061720 62 138 0.0 0.0 0.00 0.00 0.00 91 1013.3
20260510061631 62 138 0.0 0.0 0.00 0.00 0.00 91 1013.3
20260510061519 62 138 0.0 0.0 0.00 0.00 0.00 91 1013.3
20260510061427 62 138 0.0 0.0 0.00 0.00 0.00 91 1013.3
20260510061315 62 138 0.0 0.0 0.00 0.00 0.00 91 1013.3
20260510061222 62 138 0.0 0.0 0.00 0.00 0.00 91 1013.3
20260510061113 62 138 0.0 0.0 0.00 0.00 0.00 91 1013.3
20260510061021 62 138 0.0 0.0 0.00 0.00 0.00 91 1013.3
20260510060929 62 138 0.0 0.0 0.00 0.00 0.00 91 1013.2
20260510060836 62 138 0.0 0.0 0.00 0.00 0.00 91 1013.3
20260510060722 63 138 0.0 0.0 0.00 0.00 0.00 91 1013.3
20260510060650 63 138 0.0 0.0 0.00 0.00 0.00 91 1013.4
20260510060625 63 138 0.0 0.0 0.00 0.00 0.00 91 1013.3
20260510060317 63 138 0.0 0.0 0.00 0.00 0.00 92 1013.4
20260510060225 63 138 0.0 0.0 0.00 0.00 0.00 92 1013.4
20260510060113 63 138 0.0 0.0 0.00 0.00 0.00 92 1013.5
20260510060020 63 138 0.0 0.0 0.00 0.00 0.00 92 1013.5
20260510055931 63 138 0.0 0.0 0.00 0.00 0.00 92 1013.4
20260510055818 63 138 0.0 0.0 0.00 0.00 0.00 92 1013.4
20260510055745 63 138 0.0 0.0 0.00 0.00 0.00 92 1013.4
20260510055613 63 138 0.0 0.0 0.00 0.00 0.00 92 1013.4
20260510055520 63 138 0.0 0.0 0.00 0.00 0.00 91 1013.4
20260510055447 63 138 0.0 0.0 0.00 0.00 0.00 91 1013.5
20260510055334 63 138 0.0 0.0 0.00 0.00 0.00 91 1013.5
20260510055226 63 138 0.0 0.0 0.00 0.00 0.00 91 1013.5
20260510055154 63 138 0.0 0.0 0.00 0.00 0.00 91 1013.4
20260510055104 63 138 0.0 0.0 0.00 0.00 0.00 91 1013.4
20260510054837 63 138 0.0 0.0 0.00 0.00 0.00 92 1013.5
20260510054723 63 138 0.0 0.0 0.00 0.00 0.00 92 1013.5
20260510054615 63 138 0.0 0.0 0.00 0.00 0.00 91 1013.4
20260510054522 63 138 0.0 0.0 0.00 0.00 0.00 91 1013.4
20260510054430 63 138 0.0 0.0 0.00 0.00 0.00 91 1013.5
20260510054317 63 138 0.0 0.0 0.00 0.00 0.00 91 1013.4
20260510054224 63 138 0.0 0.0 0.00 0.00 0.00 91 1013.4
20260510054132 63 138 0.0 0.0 0.00 0.00 0.00 91 1013.5
20260510054023 63 138 0.0 0.0 0.00 0.00 0.00 91 1013.5
20260510053930 63 138 0.0 0.0 0.00 0.00 0.00 91 1013.4
20260510053818 63 138 0.0 0.0 0.00 0.00 0.00 91 1013.4
20260510053725 63 138 0.0 0.0 0.00 0.00 0.00 91 1013.4
20260510053612 63 138 0.0 0.0 0.00 0.00 0.00 91 1013.5
20260510053547 63 138 0.0 0.0 0.00 0.00 0.00 91 1013.5
20260510053321 63 138 0.0 0.0 0.00 0.00 0.00 91 1013.4
20260510053228 63 138 0.0 0.0 0.00 0.00 0.00 91 1013.4
20260510053134 63 138 0.0 0.0 0.00 0.00 0.00 91 1013.4
20260510053021 63 138 0.0 0.0 0.00 0.00 0.00 91 1013.5
20260510052934 63 138 0.0 0.0 0.00 0.00 0.00 91 1013.5
20260510052820 63 138 0.0 0.0 0.00 0.00 0.00 91 1013.5
20260510052727 63 138 0.0 0.0 0.00 0.00 0.00 91 1013.5
20260510052615 63 138 0.0 0.0 0.00 0.00 0.00 91 1013.5
20260510052522 63 138 0.0 0.0 0.00 0.00 0.00 91 1013.4
20260510052429 63 138 0.0 0.0 0.00 0.00 0.00 91 1013.4
20260510052321 63 175 0.0 0.0 0.00 0.00 0.00 91 1013.5
20260510052229 63 175 0.0 0.0 0.00 0.00 0.00 91 1013.5
20260510052118 63 175 0.0 0.0 0.00 0.00 0.00 91 1013.5
20260510052049 63 175 0.0 0.0 0.00 0.00 0.00 91 1013.5
20260510051828 63 175 0.0 0.0 0.00 0.00 0.00 91 1013.5
20260510051715 63 175 0.0 0.0 0.00 0.00 0.00 91 1013.4
20260510051622 63 175 0.0 0.0 0.00 0.00 0.00 91 1013.4
20260510051529 63 175 0.0 0.0 0.00 0.00 0.00 91 1013.5
20260510051416 63 175 0.0 0.0 0.00 0.00 0.00 91 1013.5
20260510051323 63 175 0.0 0.0 0.00 0.00 0.00 91 1013.5
20260510051214 64 175 0.0 0.0 0.00 0.00 0.00 91 1013.4
20260510051121 63 175 0.0 0.0 0.00 0.00 0.00 91 1013.3
20260510051029 63 175 0.0 0.0 0.00 0.00 0.00 91 1013.3
20260510050916 63 175 0.0 0.0 0.00 0.00 0.00 91 1013.4
20260510050823 63 175 0.0 0.0 0.00 0.00 0.00 91 1013.4
20260510050714 63 175 0.0 0.0 0.00 0.00 0.00 91 1013.4
20260510050622 63 175 0.0 0.0 0.00 0.00 0.00 91 1013.4
20260510050553 63 175 0.0 0.0 0.00 0.00 0.00 90 1013.4
20260510050326 63 175 0.0 0.0 0.00 0.00 0.00 89 1013.3
20260510050235 64 175 0.0 0.0 0.00 0.00 0.00 89 1013.3
20260510050145 64 175 0.0 0.0 0.00 0.00 0.00 89 1013.3
20260510050032 64 175 0.0 0.0 0.00 0.00 0.00 89 1013.4
20260510045939 64 175 0.0 0.0 0.00 0.00 0.00 89 1013.3
20260510045824 64 175 0.0 0.0 0.00 0.00 0.00 89 1013.3
20260510045752 64 175 0.0 0.0 0.00 0.00 0.00 89 1013.4
20260510045618 64 175 0.0 0.0 0.00 0.00 0.00 89 1013.3
20260510045526 64 175 0.0 0.0 0.00 0.00 0.00 89 1013.3
20260510045418 64 175 0.0 0.0 0.00 0.00 0.00 89 1013.3
20260510045326 64 175 0.0 0.0 0.00 0.00 0.00 89 1013.3
20260510045213 64 175 0.0 0.0 0.00 0.00 0.00 89 1013.3
20260510045121 64 175 0.0 0.0 0.00 0.00 0.00 88 1013.4
20260510045056 64 175 0.0 0.0 0.00 0.00 0.00 89 1013.4
20260510044830 64 175 0.0 0.0 0.00 0.00 0.00 89 1013.4
20260510044716 64 175 0.0 0.0 0.00 0.00 0.00 89 1013.5
20260510044624 64 175 0.0 0.0 0.00 0.00 0.00 89 1013.5
20260510044531 64 175 0.0 0.0 0.00 0.00 0.00 89 1013.5
20260510044439 65 175 0.0 0.0 0.00 0.00 0.00 89 1013.4
20260510044328 65 175 0.0 0.0 0.00 0.00 0.00 89 1013.4
20260510044216 65 175 0.0 0.0 0.00 0.00 0.00 89 1013.5
20260510044122 65 175 0.0 0.0 0.00 0.00 0.00 89 1013.5
20260510044031 65 175 0.0 0.0 0.00 0.00 0.00 89 1013.4
20260510043939 65 175 0.0 0.0 0.00 0.00 0.00 89 1013.4
20260510043827 65 175 0.0 0.0 0.00 0.00 0.00 88 1013.4
20260510043718 65 175 0.0 0.0 0.00 0.00 0.00 88 1013.5
20260510043645 65 175 0.0 0.0 0.00 0.00 0.00 88 1013.5
20260510043554 65 175 0.0 0.0 0.00 0.00 0.00 88 1013.5
20260510043348 65 175 0.0 0.0 0.00 0.00 0.00 88 1013.5
20260510043233 65 175 0.0 0.0 0.00 0.00 0.00 88 1013.6
20260510043119 65 175 0.0 0.0 0.00 0.00 0.00 88 1013.6
20260510043029 65 175 0.0 0.0 0.00 0.00 0.00 88 1013.6
20260510042916 65 175 0.0 0.0 0.00 0.00 0.00 89 1013.7
20260510042824 65 175 0.0 0.0 0.00 0.00 0.00 89 1013.7
20260510042751 65 175 0.0 0.0 0.00 0.00 0.00 88 1013.6
20260510042617 65 175 0.0 0.0 0.00 0.00 0.00 88 1013.6
20260510042525 65 175 0.0 0.0 0.00 0.00 0.00 88 1013.6
20260510042435 65 175 0.0 0.0 0.00 0.00 0.00 88 1013.7
20260510042321 65 175 0.0 0.0 0.00 0.00 0.00 88 1013.6
20260510042228 65 175 0.0 0.0 0.00 0.00 0.00 88 1013.6
20260510042114 65 175 0.0 0.0 0.00 0.00 0.00 88 1013.7
20260510042050 65 175 0.0 0.0 0.00 0.00 0.00 88 1013.7
20260510041823 65 175 0.0 0.0 0.00 0.00 0.00 88 1013.6
20260510041730 65 175 0.0 0.0 0.00 0.00 0.00 88 1013.7
20260510041617 65 175 0.0 0.0 0.00 0.00 0.00 88 1013.7
20260510041526 65 175 0.0 0.0 0.00 0.00 0.00 88 1013.7
20260510041414 65 175 0.0 0.0 0.00 0.00 0.00 89 1013.7
20260510041326 65 175 0.0 0.0 0.00 0.00 0.00 89 1013.7
20260510041214 65 175 0.0 0.0 0.00 0.00 0.00 89 1013.7
20260510041123 65 175 0.0 0.0 0.00 0.00 0.00 88 1013.7
20260510041030 65 175 0.0 0.0 0.00 0.00 0.00 88 1013.7
20260510040918 65 175 0.0 0.0 0.00 0.00 0.00 88 1013.6
20260510040829 65 175 0.0 0.0 0.00 0.00 0.00 88 1013.6
20260510040718 65 175 0.0 0.0 0.00 0.00 0.00 88 1013.6
20260510040624 65 175 0.0 0.0 0.00 0.00 0.00 88 1013.6
20260510040556 65 175 0.0 0.0 0.00 0.00 0.00 88 1013.5
20260510040349 65 175 0.0 0.0 0.00 0.00 0.00 88 1013.6
20260510040220 65 175 0.0 0.0 0.00 0.00 0.00 88 1013.6
20260510040149 66 175 0.0 0.0 0.00 0.00 0.00 88 1013.6
20260510040017 66 175 0.0 0.0 0.00 0.00 0.00 88 1013.7
20260510035923 66 175 0.0 0.0 0.00 0.00 0.00 87 1013.7
20260510035812 66 163 0.0 0.0 0.00 0.00 0.00 87 1013.7
20260510035720 66 163 0.0 1.0 0.00 0.00 0.00 87 1013.5
20260510035612 66 163 0.0 1.0 0.00 0.00 0.00 87 1013.5
20260510035518 66 163 0.0 1.0 0.00 0.00 0.00 87 1013.6
20260510035427 66 163 0.0 1.0 0.00 0.00 0.00 87 1013.6
20260510035316 66 163 0.0 1.0 0.00 0.00 0.00 87 1013.5
20260510035223 66 163 0.0 1.0 0.00 0.00 0.00 87 1013.5
20260510035115 66 163 0.0 1.0 0.00 0.00 0.00 87 1013.5
20260510035046 66 163 0.0 1.0 0.00 0.00 0.00 87 1013.5
20260510034819 66 163 0.0 1.0 0.00 0.00 0.00 87 1013.6
20260510034748 66 163 0.0 1.0 0.00 0.00 0.00 87 1013.6
20260510034633 66 163 0.0 1.0 0.00 0.00 0.00 86 1013.5
20260510034520 66 163 0.0 1.0 0.00 0.00 0.00 86 1013.6
20260510034431 66 163 0.0 2.0 0.00 0.00 0.00 86 1013.6
20260510034318 66 163 0.0 2.0 0.00 0.00 0.00 86 1013.5
20260510034245 66 163 0.0 2.0 0.00 0.00 0.00 86 1013.5
20260510034131 66 163 0.0 2.0 0.00 0.00 0.00 86 1013.5
20260510034018 66 182 0.0 2.0 0.00 0.00 0.00 86 1013.5
20260510033925 66 182 0.0 2.0 0.00 0.00 0.00 86 1013.5
20260510033817 66 182 0.0 3.0 0.00 0.00 0.00 86 1013.5
20260510033725 66 182 0.0 3.0 0.00 0.00 0.00 86 1013.5
20260510033633 66 172 1.0 3.0 0.00 0.00 0.00 86 1013.5
20260510033603 66 172 1.0 3.0 0.00 0.00 0.00 86 1013.5
20260510033322 67 197 0.0 3.0 0.00 0.00 0.00 86 1013.5
20260510033229 67 197 0.0 3.0 0.00 0.00 0.00 86 1013.5
20260510033116 67 197 0.0 3.0 0.00 0.00 0.00 86 1013.6
20260510033023 67 197 1.0 3.0 0.00 0.00 0.00 86 1013.6
20260510032930 67 197 1.0 3.0 0.00 0.00 0.00 86 1013.7
20260510032822 67 205 1.0 3.0 0.00 0.00 0.00 86 1013.6
20260510032730 67 192 1.0 4.0 0.00 0.00 0.00 86 1013.6
20260510032637 67 191 2.0 4.0 0.00 0.00 0.00 86 1013.6
20260510032522 67 188 2.0 4.0 0.00 0.00 0.00 86 1013.6
20260510032430 67 215 2.0 4.0 0.00 0.00 0.00 85 1013.6
20260510032316 67 192 1.0 4.0 0.00 0.00 0.00 85 1013.5
20260510032227 67 209 2.0 4.0 0.00 0.00 0.00 85 1013.5
20260510032135 67 201 2.0 4.0 0.00 0.00 0.00 85 1013.5
20260510032106 67 195 2.0 4.0 0.00 0.00 0.00 85 1013.6
20260510031819 67 206 2.0 5.0 0.00 0.00 0.00 85 1013.6
20260510031726 67 206 2.0 5.0 0.00 0.00 0.00 85 1013.6
20260510031618 67 206 2.0 5.0 0.00 0.00 0.00 85 1013.5
20260510031525 67 200 2.0 5.0 0.00 0.00 0.00 85 1013.5
20260510031414 67 202 3.0 5.0 0.00 0.00 0.00 85 1013.7
20260510031322 67 174 3.0 5.0 0.00 0.00 0.00 85 1013.7
20260510031228 67 180 2.0 5.0 0.00 0.00 0.00 85 1013.5
20260510031119 67 188 2.0 5.0 0.00 0.00 0.00 85 1013.5
20260510031025 67 203 2.0 4.0 0.00 0.00 0.00 85 1013.5
20260510030953 67 234 2.0 4.0 0.00 0.00 0.00 85 1013.6
20260510030817 67 215 3.0 4.0 0.00 0.00 0.00 85 1013.6
20260510030724 67 192 2.0 4.0 0.00 0.00 0.00 84 1013.6
20260510030613 67 194 2.0 3.0 0.00 0.00 0.00 84 1013.4
20260510030547 67 213 1.0 3.0 0.00 0.00 0.00 84 1013.4
20260510030341 67 205 2.0 5.0 0.00 0.00 0.00 84 1013.5
20260510030247 67 227 2.0 5.0 0.00 0.00 0.00 84 1013.5
20260510030112 67 216 1.0 5.0 0.00 0.00 0.00 84 1013.5
20260510030040 68 190 1.0 5.0 0.00 0.00 0.00 84 1013.5
20260510025948 68 190 1.0 5.0 0.00 0.00 0.00 84 1013.5
20260510025818 68 196 2.0 5.0 0.00 0.00 0.00 84 1013.5
20260510025746 68 217 3.0 5.0 0.00 0.00 0.00 84 1013.5
20260510025613 68 215 3.0 5.0 0.00 0.00 0.00 84 1013.4
20260510025521 68 196 3.0 5.0 0.00 0.00 0.00 84 1013.4
20260510025427 68 202 3.0 5.0 0.00 0.00 0.00 84 1013.4
20260510025314 68 198 3.0 5.0 0.00 0.00 0.00 84 1013.3
20260510025227 68 198 3.0 5.0 0.00 0.00 0.00 83 1013.3
20260510025154 68 205 2.0 5.0 0.00 0.00 0.00 83 1013.2
20260510025102 68 205 3.0 5.0 0.00 0.00 0.00 83 1013.2
20260510024816 68 201 4.0 6.0 0.00 0.00 0.00 83 1013.2
20260510024722 68 221 4.0 6.0 0.00 0.00 0.00 83 1013.2
20260510024614 68 190 3.0 6.0 0.00 0.00 0.00 83 1013.2
20260510024522 68 232 3.0 6.0 0.00 0.00 0.00 83 1013.2
20260510024429 68 163 3.0 6.0 0.00 0.00 0.00 83 1013.2
20260510024316 68 205 3.0 6.0 0.00 0.00 0.00 83 1013.2
20260510024223 68 188 4.0 6.0 0.00 0.00 0.00 83 1013.2
20260510024116 68 202 3.0 6.0 0.00 0.00 0.00 83 1013.2
20260510024022 68 188 3.0 6.0 0.00 0.00 0.00 83 1013.2
20260510023931 68 205 3.0 6.0 0.00 0.00 0.00 83 1013.2
20260510023838 68 199 4.0 6.0 0.00 0.00 0.00 83 1013.1
20260510023724 68 200 4.0 6.0 0.00 0.00 0.00 82 1013.1
20260510023612 68 173 3.0 6.0 0.00 0.00 0.00 82 1013.1
20260510023546 68 192 3.0 6.0 0.00 0.00 0.00 82 1013.1
20260510023320 68 192 2.0 5.0 0.00 0.00 0.00 82 1013.1
20260510023226 68 175 3.0 5.0 0.00 0.00 0.00 82 1013.1
20260510023114 68 217 3.0 4.0 0.00 0.00 0.00 82 1013.1
20260510023021 68 173 3.0 4.0 0.00 0.00 0.00 82 1013.0
20260510022931 69 189 2.0 4.0 0.00 0.00 0.00 81 1013.0
20260510022819 69 185 3.0 4.0 0.00 0.00 0.00 81 1012.9
20260510022727 69 198 3.0 4.0 0.00 0.00 0.00 81 1012.9
20260510022615 69 176 2.0 4.0 0.00 0.00 0.00 81 1012.9
20260510022543 69 202 2.0 4.0 0.00 0.00 0.00 81 1012.9
20260510022414 69 212 2.0 4.0 0.00 0.00 0.00 81 1012.9
20260510022322 69 200 2.0 4.0 0.00 0.00 0.00 81 1012.9
20260510022228 69 169 2.0 4.0 0.00 0.00 0.00 81 1012.9
20260510022116 69 187 2.0 4.0 0.00 0.00 0.00 81 1012.8
20260510022046 69 178 1.0 3.0 0.00 0.00 0.00 81 1012.8
20260510021824 69 180 0.0 3.0 0.00 0.00 0.00 80 1012.7
20260510021712 69 181 1.0 3.0 0.00 0.00 0.00 80 1012.7
20260510021619 69 181 1.0 3.0 0.00 0.00 0.00 80 1012.7
20260510021526 69 184 1.0 3.0 0.00 0.00 0.00 80 1012.7
20260510021414 69 174 1.0 3.0 0.00 0.00 0.00 80 1012.7
20260510021325 69 187 1.0 3.0 0.00 0.00 0.00 80 1012.7
20260510021212 69 175 1.0 3.0 0.00 0.00 0.00 80 1012.6
20260510021140 69 180 1.0 3.0 0.00 0.00 0.00 79 1012.5
20260510021026 69 149 1.0 3.0 0.00 0.00 0.00 79 1012.5
20260510020914 69 149 0.0 3.0 0.00 0.00 0.00 79 1012.4
20260510020821 69 149 0.0 3.0 0.00 0.00 0.00 79 1012.5
20260510020733 69 137 1.0 3.0 0.00 0.00 0.00 79 1012.5
20260510020701 69 137 1.0 3.0 0.00 0.00 0.00 79 1012.4
20260510020612 69 137 1.0 3.0 0.00 0.00 0.00 79 1012.4
20260510020325 70 184 1.0 4.0 0.00 0.00 0.00 79 1012.3
20260510020213 70 178 0.0 4.0 0.00 0.00 0.00 79 1012.3
20260510020125 70 178 0.0 4.0 0.00 0.00 0.00 79 1012.3
20260510020012 70 178 1.0 4.0 0.00 0.00 0.00 79 1012.3
20260510015921 70 178 1.0 4.0 0.00 0.00 0.00 79 1012.2
20260510015829 70 192 2.0 4.0 0.00 0.00 0.00 79 1012.2
20260510015737 70 201 2.0 4.0 0.00 0.00 0.00 79 1012.2
20260510015623 70 184 2.0 5.0 0.00 0.00 0.00 78 1012.2
20260510015514 70 202 2.0 5.0 0.00 0.00 0.00 78 1012.2
20260510015421 70 173 2.0 5.0 0.00 0.00 0.00 78 1012.3
20260510015329 70 200 1.0 5.0 0.00 0.00 0.00 78 1012.3
20260510015216 70 207 1.0 5.0 0.00 0.00 0.00 78 1012.1
20260510015124 70 175 2.0 5.0 0.00 0.00 0.00 78 1012.1
20260510015058 70 175 2.0 5.0 0.00 0.00 0.00 78 1012.2
20260510014812 70 190 2.0 7.0 0.00 0.00 0.00 78 1012.1
20260510014739 70 170 2.0 7.0 0.00 0.00 0.00 78 1012.0
20260510014625 70 208 2.0 7.0 0.00 0.00 0.00 78 1012.0
20260510014533 70 153 2.0 7.0 0.00 0.00 0.00 78 1012.0
20260510014420 70 180 3.0 7.0 0.00 0.00 0.00 78 1011.9
20260510014351 70 141 3.0 7.0 0.00 0.00 0.00 78 1011.9
20260510014218 70 157 3.0 7.0 0.00 0.00 0.00 78 1012.0
20260510014124 70 153 4.0 7.0 0.00 0.00 0.00 78 1012.0
20260510014012 70 141 3.0 5.0 0.00 0.00 0.00 78 1012.0
20260510013918 70 142 3.0 5.0 0.00 0.00 0.00 78 1011.9
20260510013827 70 130 3.0 5.0 0.00 0.00 0.00 78 1011.9
20260510013739 70 153 3.0 5.0 0.00 0.00 0.00 78 1011.9
20260510013706 70 141 3.0 5.0 0.00 0.00 0.00 78 1011.8
20260510013616 70 157 3.0 6.0 0.00 0.00 0.00 78 1011.8
20260510013328 70 141 2.0 6.0 0.00 0.00 0.00 78 1011.8
20260510013216 70 155 2.0 6.0 0.00 0.00 0.00 78 1011.8
20260510013128 70 130 2.0 6.0 0.00 0.00 0.00 77 1011.8
20260510013016 70 150 2.0 6.0 0.00 0.00 0.00 77 1011.8
20260510012924 70 127 3.0 6.0 0.00 0.00 0.00 77 1011.8
20260510012833 70 153 2.0 7.0 0.00 0.00 0.00 77 1011.7
20260510012719 71 149 2.0 7.0 0.00 0.00 0.00 77 1011.7
20260510012626 71 124 3.0 7.0 0.00 0.00 0.00 77 1011.7
20260510012519 71 128 2.0 7.0 0.00 0.00 0.00 77 1011.7
20260510012426 71 102 2.0 7.0 0.00 0.00 0.00 77 1011.7
20260510012314 71 157 3.0 7.0 0.00 0.00 0.00 77 1011.6
20260510012221 71 130 4.0 7.0 0.00 0.00 0.00 76 1011.6
20260510012127 71 125 4.0 7.0 0.00 0.00 0.00 76 1011.6
20260510012101 71 139 4.0 7.0 0.00 0.00 0.00 76 1011.6
20260510011814 71 135 2.0 6.0 0.00 0.00 0.00 76 1011.5
20260510011726 71 137 2.0 5.0 0.00 0.00 0.00 77 1011.5
20260510011650 71 136 2.0 7.0 0.00 0.00 0.00 76 1011.5
20260510011538 71 153 3.0 9.0 0.00 0.00 0.00 76 1011.6
20260510011425 71 130 3.0 9.0 0.00 0.00 0.00 76 1011.6
20260510011315 71 126 2.0 9.0 0.00 0.00 0.00 76 1011.6
20260510011223 71 136 2.0 9.0 0.00 0.00 0.00 76 1011.6
20260510011131 71 126 3.0 9.0 0.00 0.00 0.00 76 1011.6
20260510011017 71 156 4.0 9.0 0.00 0.00 0.00 76 1011.6
20260510010926 71 129 5.0 9.0 0.00 0.00 0.00 76 1011.6
20260510010818 71 142 6.0 9.0 0.00 0.00 0.00 76 1011.5
20260510010725 71 136 5.0 9.0 0.00 0.00 0.00 76 1011.5
20260510010654 71 123 5.0 9.0 0.00 0.00 0.00 76 1011.5
20260510010602 71 112 4.0 8.0 0.00 0.00 0.00 76 1011.5
20260510010316 72 146 4.0 7.0 0.00 0.00 0.00 75 1011.4
20260510010244 72 138 3.0 6.0 0.00 0.00 0.00 75 1011.4
20260510010115 72 133 3.0 5.0 0.00 0.00 0.00 75 1011.4
20260510010022 72 152 3.0 5.0 0.00 0.00 0.00 75 1011.4
20260510005950 72 152 2.0 5.0 0.00 0.00 0.00 75 1011.3
20260510005818 72 126 2.0 7.0 0.00 0.00 0.00 75 1011.3
20260510005724 72 150 2.0 7.0 0.00 0.00 0.00 75 1011.3
20260510005616 72 136 2.0 7.0 0.00 0.00 0.00 75 1011.3
20260510005524 72 205 2.0 7.0 0.00 0.00 0.00 75 1011.3
20260510005431 72 183 3.0 7.0 0.00 0.00 0.00 75 1011.2
20260510005318 72 154 3.0 7.0 0.00 0.00 0.00 75 1011.3
20260510005225 72 177 3.0 7.0 0.00 0.00 0.00 74 1011.3
20260510005112 72 190 4.0 7.0 0.00 0.00 0.00 74 1011.2
20260510005047 72 198 4.0 7.0 0.00 0.00 0.00 74 1011.2
20260510004822 72 136 4.0 7.0 0.00 0.00 0.00 74 1011.2
20260510004728 72 146 4.0 7.0 0.00 0.00 0.00 74 1011.3
20260510004617 72 140 3.0 7.0 0.00 0.00 0.00 74 1011.2
20260510004528 72 158 3.0 7.0 0.00 0.00 0.00 74 1011.2
20260510004415 72 143 4.0 9.0 0.00 0.00 0.00 74 1011.1
20260510004342 72 202 4.0 9.0 0.00 0.00 0.00 74 1011.1
20260510004230 72 196 4.0 9.0 0.00 0.00 0.00 74 1011.1
20260510004117 72 189 4.0 9.0 0.00 0.00 0.00 73 1011.1
20260510004044 72 202 4.0 9.0 0.00 0.00 0.00 73 1011.1
20260510003914 72 178 4.0 9.0 0.00 0.00 0.00 73 1011.0
20260510003821 72 178 4.0 9.0 0.00 0.00 0.00 73 1010.9
20260510003728 72 179 4.0 9.0 0.00 0.00 0.00 73 1010.9
20260510003635 73 186 4.0 6.0 0.00 0.00 0.00 73 1011.0
20260510003605 73 195 3.0 6.0 0.00 0.00 0.00 73 1010.9
20260510003322 73 197 2.0 6.0 0.00 0.00 0.00 73 1011.0
20260510003229 73 163 3.0 6.0 0.00 0.00 0.00 73 1010.9
20260510003117 73 196 4.0 6.0 0.00 0.00 0.00 72 1010.9
20260510003044 73 205 4.0 6.0 0.00 0.00 0.00 72 1010.9
20260510002930 73 210 4.0 7.0 0.00 0.00 0.00 72 1010.8
20260510002818 73 197 4.0 7.0 0.00 0.00 0.00 72 1010.8
20260510002729 73 198 4.0 7.0 0.00 0.00 0.00 72 1010.8
20260510002616 73 224 4.0 7.0 0.00 0.00 0.00 72 1010.8
20260510002544 73 196 4.0 7.0 0.00 0.00 0.00 72 1010.8
20260510002431 73 199 4.0 7.0 0.00 0.00 0.00 72 1010.7
20260510002319 73 199 3.0 7.0 0.00 0.00 0.00 71 1010.8
20260510002226 74 208 3.0 7.0 0.00 0.00 0.00 71 1010.8
20260510002137 74 210 2.0 7.0 0.00 0.00 0.00 71 1010.8
20260510002047 74 167 2.0 7.0 0.00 0.00 0.00 70 1010.8
20260510001820 74 166 2.0 8.0 0.00 0.00 0.00 69 1010.8
20260510001728 74 191 3.0 8.0 0.00 0.00 0.00 69 1010.8
20260510001636 74 194 4.0 8.0 0.00 0.00 0.00 69 1010.6
20260510001526 74 211 5.0 8.0 0.00 0.00 0.00 69 1010.6
20260510001415 74 165 5.0 8.0 0.00 0.00 0.00 69 1010.7
20260510001322 74 186 5.0 8.0 0.00 0.00 0.00 68 1010.7
20260510001231 74 178 5.0 8.0 0.00 0.00 0.00 68 1010.7
20260510001118 74 165 4.0 7.0 0.00 0.00 0.00 67 1010.7
20260510001030 74 188 4.0 6.0 0.00 0.00 0.00 66 1010.7
20260510000917 74 178 2.0 5.0 0.00 0.00 0.00 66 1010.7
20260510000845 74 204 2.0 4.0 0.00 0.00 0.00 65 1010.7
20260510000733 74 203 1.0 3.0 0.00 0.00 0.00 64 1010.7
20260510000619 74 203 1.0 3.0 0.00 0.00 0.00 65 1010.7
20260510000554 74 203 1.0 3.0 0.00 0.00 0.00 65 1010.7
20260510000328 74 348 1.0 2.0 0.00 0.00 0.00 65 1010.6
20260510000218 75 348 1.0 1.0 0.00 0.00 0.00 65 1010.6
20260510000124 75 348 0.0 1.0 0.00 0.00 0.00 65 1010.6
20260510000052 75 348 0.0 1.0 0.00 0.00 0.00 65 1010.7
20260509235920 75 348 0.0 1.0 0.00 0.00 0.00 64 1010.6
20260509235831 75 348 0.0 1.0 0.00 0.00 0.00 63 1010.6
20260509235718 75 348 0.0 1.0 0.00 0.00 0.00 63 1010.6
20260509235625 75 348 0.0 1.0 0.00 0.00 0.00 63 1010.6
20260509235531 75 348 0.0 1.0 0.00 0.00 0.00 62 1010.5
20260509235439 75 348 0.0 1.0 0.00 0.00 0.00 63 1010.5
20260509235326 75 348 0.0 0.0 0.00 0.00 0.00 63 1010.5
20260509235238 75 348 0.0 1.0 0.00 0.00 0.00 62 1010.5
20260509235123 75 348 0.0 1.0 0.00 0.00 0.00 63 1010.5
20260509235054 75 348 0.0 1.0 0.00 0.00 0.00 62 1010.5
20260509234827 75 348 0.0 1.0 0.00 0.00 0.00 63 1010.5
20260509234714 75 348 0.0 1.0 0.00 0.00 0.00 63 1010.6
20260509234627 75 348 0.0 1.0 0.00 0.00 0.00 64 1010.6
20260509234533 75 348 0.0 1.0 0.00 0.00 0.00 64 1010.5
20260509234420 75 348 0.0 1.0 0.00 0.00 0.00 64 1010.4
20260509234326 75 348 0.0 1.0 0.00 0.00 0.00 63 1010.4
20260509234213 75 348 0.0 3.0 0.00 0.00 0.00 63 1010.4
20260509234121 75 348 0.0 3.0 0.00 0.00 0.00 63 1010.5
20260509234032 75 348 0.0 3.0 0.00 0.00 0.00 63 1010.5
20260509233920 75 348 0.0 3.0 0.00 0.00 0.00 63 1010.4
20260509233828 75 348 0.0 3.0 0.00 0.00 0.00 63 1010.4
20260509233715 75 348 1.0 3.0 0.00 0.00 0.00 63 1010.3
20260509233622 75 348 1.0 3.0 0.00 0.00 0.00 63 1010.3
20260509233557 75 348 2.0 3.0 0.00 0.00 0.00 63 1010.3
20260509233331 75 348 2.0 3.0 0.00 0.00 0.00 62 1010.2
20260509233219 76 344 1.0 3.0 0.00 0.00 0.00 62 1010.2
20260509233126 75 321 1.0 3.0 0.00 0.00 0.00 62 1010.2
20260509233017 76 321 2.0 3.0 0.00 0.00 0.00 62 1010.4
20260509232945 76 321 2.0 3.0 0.00 0.00 0.00 62 1010.4
20260509232852 76 312 2.0 3.0 0.00 0.00 0.00 63 1010.4
20260509232718 76 304 1.0 2.0 0.00 0.00 0.00 62 1010.4
20260509232626 76 304 1.0 2.0 0.00 0.00 0.00 62 1010.4
20260509232513 76 304 0.0 3.0 0.00 0.00 0.00 63 1010.5
20260509232420 76 304 1.0 3.0 0.00 0.00 0.00 63 1010.6
20260509232312 76 304 1.0 3.0 0.00 0.00 0.00 63 1010.5
20260509232220 76 304 1.0 3.0 0.00 0.00 0.00 63 1010.5
20260509232128 76 304 1.0 3.0 0.00 0.00 0.00 62 1010.5
20260509232058 76 304 1.0 3.0 0.00 0.00 0.00 62 1010.6
20260509231816 76 304 2.0 3.0 0.00 0.00 0.00 62 1010.6
20260509231724 76 306 2.0 3.0 0.00 0.00 0.00 62 1010.6
20260509231612 76 306 2.0 3.0 0.00 0.00 0.00 62 1010.5
20260509231518 76 299 1.0 3.0 0.00 0.00 0.00 62 1010.5
20260509231447 76 294 1.0 3.0 0.00 0.00 0.00 62 1010.5
20260509231314 76 286 1.0 4.0 0.00 0.00 0.00 62 1010.5
20260509231226 76 286 1.0 4.0 0.00 0.00 0.00 62 1010.5
20260509231113 76 263 1.0 4.0 0.00 0.00 0.00 63 1010.5
20260509231021 76 255 1.0 5.0 0.00 0.00 0.00 63 1010.4
20260509230930 76 255 1.0 5.0 0.00 0.00 0.00 63 1010.4
20260509230837 76 271 2.0 5.0 0.00 0.00 0.00 62 1010.4
20260509230723 76 273 2.0 5.0 0.00 0.00 0.00 62 1010.4
20260509230635 76 300 2.0 5.0 0.00 0.00 0.00 61 1010.4
20260509230605 76 348 2.0 5.0 0.00 0.00 0.00 61 1010.4
20260509230318 76 315 3.0 5.0 0.00 0.00 0.00 61 1010.5
20260509230225 76 321 3.0 5.0 0.00 0.00 0.00 61 1010.5
20260509230116 76 340 2.0 4.0 0.00 0.00 0.00 61 1010.4
20260509230022 76 346 2.0 3.0 0.00 0.00 0.00 61 1010.4
20260509225930 76 346 2.0 3.0 0.00 0.00 0.00 61 1010.4
20260509225838 77 346 2.0 4.0 0.00 0.00 0.00 60 1010.4
20260509225725 76 346 2.0 4.0 0.00 0.00 0.00 60 1010.4
20260509225613 77 289 2.0 4.0 0.00 0.00 0.00 61 1010.4
20260509225523 77 304 2.0 4.0 0.00 0.00 0.00 61 1010.4
20260509225431 77 252 2.0 4.0 0.00 0.00 0.00 61 1010.5
20260509225337 77 267 2.0 5.0 0.00 0.00 0.00 61 1010.3
20260509225244 77 293 2.0 5.0 0.00 0.00 0.00 60 1010.3
20260509225130 77 293 2.0 5.0 0.00 0.00 0.00 61 1010.3
20260509225105 77 310 2.0 5.0 0.00 0.00 0.00 60 1010.2
20260509224818 77 312 3.0 5.0 0.00 0.00 0.00 60 1010.3
20260509224725 77 325 3.0 5.0 0.00 0.00 0.00 60 1010.3
20260509224614 77 298 4.0 5.0 0.00 0.00 0.00 60 1010.3
20260509224520 77 344 3.0 5.0 0.00 0.00 0.00 60 1010.4